DL9BGG-13 Weather Reports


Display with metric or nautical units.
time (UTC)temp
F
wind
direction
speed
MPH
gust
MPH
rain 1hr
in
rain 24hr
in
rain mn
in
humidity
%
barometer
mb
20260507232433 45 45 0.0 0.0 0.00 0.00 0.00 87 1063.8
20260507232319 45 45 0.0 0.0 0.00 0.00 0.00 87 1063.8
20260507232159 45 45 0.0 0.0 0.00 0.00 0.00 87 1063.8
20260507232045 45 45 0.0 0.0 0.00 0.00 0.00 87 1063.8
20260507231918 45 45 0.0 0.0 0.00 0.00 0.00 87 1063.8
20260507231811 45 45 0.0 0.0 0.00 0.00 0.00 87 1063.7
20260507231634 46 45 0.0 0.0 0.00 0.00 0.00 87 1063.7
20260507231520 46 45 0.0 0.0 0.00 0.00 0.00 87 1063.7
20260507231407 46 45 0.0 0.0 0.00 0.00 0.00 87 1063.7
20260507231238 46 45 0.0 0.0 0.00 0.00 0.00 87 1063.7
20260507231116 46 45 0.0 0.0 0.00 0.00 0.00 87 1063.7
20260507230956 46 45 0.0 0.0 0.00 0.00 0.00 87 1063.8
20260507230842 46 45 0.0 0.0 0.00 0.00 0.00 87 1063.7
20260507230721 46 45 0.0 0.0 0.00 0.00 0.00 87 1063.7
20260507230608 46 45 0.0 0.0 0.00 0.00 0.00 87 1063.7
20260507230441 46 45 0.0 0.0 0.00 0.00 0.00 87 1063.7
20260507230335 46 45 0.0 0.0 0.00 0.00 0.00 87 1063.7
20260507230229 46 45 0.0 0.0 0.00 0.00 0.00 87 1063.6
20260507230115 46 45 0.0 0.0 0.00 0.00 0.00 87 1063.7
20260507225946 46 45 0.0 0.0 0.00 0.00 0.00 87 1063.7
20260507225827 46 45 0.0 0.0 0.00 0.00 0.00 87 1063.7
20260507225720 47 45 0.0 0.0 0.00 0.00 0.00 87 1063.6
20260507225558 47 45 0.0 0.0 0.00 0.00 0.00 87 1063.7
20260507225446 47 45 0.0 0.0 0.00 0.00 0.00 87 1063.7
20260507225340 47 45 0.0 0.0 0.00 0.00 0.00 87 1063.6
20260507225219 47 45 0.0 0.0 0.00 0.00 0.00 86 1063.7
20260507225106 47 45 0.0 0.0 0.00 0.00 0.00 86 1063.7
20260507224954 47 45 0.0 0.0 0.00 0.00 0.00 86 1063.6
20260507224847 47 45 0.0 0.0 0.00 0.00 0.00 86 1063.7
20260507224729 47 45 0.0 0.0 0.00 0.00 0.00 86 1063.7
20260507224622 47 45 0.0 0.0 0.00 0.00 0.00 86 1063.7
20260507224511 47 45 0.0 0.0 0.00 0.00 0.00 86 1063.8
20260507224403 48 45 0.0 0.0 0.00 0.00 0.00 86 1063.6
20260507224250 48 45 0.0 0.0 0.00 0.00 0.00 86 1063.7
20260507224121 48 45 0.0 0.0 0.00 0.00 0.00 86 1063.7
20260507224007 48 45 0.0 0.0 0.00 0.00 0.00 86 1063.7
20260507223840 48 45 0.0 0.0 0.00 0.00 0.00 86 1063.8
20260507223733 48 45 0.0 0.0 0.00 0.00 0.00 86 1063.7
20260507223620 48 45 0.0 0.0 0.00 0.00 0.00 86 1063.8
20260507223501 48 45 0.0 0.0 0.00 0.00 0.00 86 1063.8
20260507223338 48 45 0.0 0.0 0.00 0.00 0.00 86 1063.8
20260507223217 48 45 0.0 0.0 0.00 0.00 0.00 86 1063.8
20260507223106 48 45 0.0 0.0 0.00 0.00 0.00 86 1063.8
20260507222959 48 45 0.0 0.0 0.00 0.00 0.00 86 1063.7
20260507222846 48 45 0.0 0.0 0.00 0.00 0.00 86 1063.8
20260507222740 49 45 0.0 0.0 0.00 0.00 0.00 86 1063.8
20260507222611 49 45 0.0 0.0 0.00 0.00 0.00 86 1063.8
20260507222452 49 45 0.0 0.0 0.00 0.00 0.00 86 1063.8
20260507222344 49 45 0.0 0.0 0.00 0.00 0.00 86 1063.7
20260507222223 49 22 0.0 0.0 0.00 0.00 0.00 86 1063.7
20260507222110 49 22 0.0 0.0 0.00 0.00 0.00 86 1063.7
20260507221949 49 22 0.0 0.0 0.00 0.00 0.00 86 1063.7
20260507221843 49 45 0.0 0.0 0.00 0.00 0.00 86 1063.7
20260507221729 49 45 0.0 0.0 0.00 0.00 0.00 86 1063.7
20260507221615 49 45 0.0 0.0 0.00 0.00 0.00 86 1063.6
20260507221503 49 45 0.0 0.0 0.00 0.00 0.00 86 1063.7
20260507221342 49 45 0.0 0.0 0.00 0.00 0.00 86 1063.6
20260507221229 49 67 5.0 0.0 0.00 0.00 0.00 86 1063.8
20260507221107 49 45 0.0 0.0 0.00 0.00 0.00 86 1063.7
20260507220947 49 45 0.0 0.0 0.00 0.00 0.00 86 1063.6
20260507220833 49 45 0.0 0.0 0.00 0.00 0.00 86 1063.6
20260507220713 49 45 0.0 0.0 0.00 0.00 0.00 86 1063.7
20260507220600 49 45 0.0 0.0 0.00 0.00 0.00 86 1063.7
20260507220454 49 45 0.0 0.0 0.00 0.00 0.00 86 1063.7
20260507220350 49 22 3.0 0.0 0.00 0.00 0.00 86 1063.7
20260507220243 49 45 0.0 0.0 0.00 0.00 0.00 86 1063.7
20260507220115 49 45 0.0 0.0 0.00 0.00 0.00 86 1063.8
20260507220002 49 45 0.0 0.0 0.00 0.00 0.00 86 1063.8
20260507215849 49 45 0.0 0.0 0.00 0.00 0.00 86 1063.6
20260507215743 49 67 6.0 0.0 0.00 0.00 0.00 86 1063.6
20260507215622 49 45 3.0 0.0 0.00 0.00 0.00 86 1063.7
20260507215509 49 45 0.0 0.0 0.00 0.00 0.00 86 1063.6
20260507215404 49 45 0.0 0.0 0.00 0.00 0.00 86 1063.6
20260507215237 49 45 0.0 0.0 0.00 0.00 0.00 86 1063.7
20260507215129 49 45 0.0 0.0 0.00 0.00 0.00 86 1063.6
20260507215017 49 22 0.0 0.0 0.00 0.00 0.00 86 1063.6
20260507214911 49 45 0.0 0.0 0.00 0.00 0.00 86 1063.5
20260507214752 49 45 0.0 0.0 0.00 0.00 0.00 86 1063.6
20260507214637 49 45 0.0 0.0 0.00 0.00 0.00 86 1063.5
20260507214515 49 45 0.0 0.0 0.00 0.00 0.00 86 1063.6
20260507214354 49 45 0.0 0.0 0.00 0.00 0.00 86 1063.5
20260507214242 49 45 0.0 0.0 0.00 0.00 0.00 86 1063.5
20260507214136 49 45 6.0 0.0 0.00 0.00 0.00 86 1063.6
20260507214024 49 45 5.0 0.0 0.00 0.00 0.00 86 1063.6
20260507213913 49 45 0.0 0.0 0.00 0.00 0.00 85 1063.6
20260507213806 49 45 0.0 0.0 0.00 0.00 0.00 85 1063.6
20260507213652 49 45 0.0 0.0 0.00 0.00 0.00 85 1063.6
20260507213539 49 45 4.0 0.0 0.00 0.00 0.00 85 1063.7
20260507213425 49 22 0.0 0.0 0.00 0.00 0.00 85 1063.6
20260507213256 49 45 0.0 0.0 0.00 0.00 0.00 85 1063.6
20260507213135 49 45 0.0 0.0 0.00 0.00 0.00 85 1063.6
20260507213015 49 45 5.0 0.0 0.00 0.00 0.00 85 1063.6
20260507212909 49 45 0.0 0.0 0.00 0.00 0.00 85 1063.6
20260507212804 49 45 5.0 0.0 0.00 0.00 0.00 85 1063.6
20260507212650 49 45 0.0 0.0 0.00 0.00 0.00 85 1063.6
20260507212530 49 45 3.0 0.0 0.00 0.00 0.00 85 1063.6
20260507212417 49 90 4.0 0.0 0.00 0.00 0.00 85 1063.6
20260507212312 49 45 2.0 0.0 0.00 0.00 0.00 85 1063.6
20260507212150 50 22 0.0 0.0 0.00 0.00 0.00 84 1063.6
20260507212029 50 67 0.0 0.0 0.00 0.00 0.00 84 1063.6
20260507211923 50 45 4.0 0.0 0.00 0.00 0.00 84 1063.5
20260507211817 50 45 4.0 0.0 0.00 0.00 0.00 84 1063.6
20260507211712 50 45 0.0 0.0 0.00 0.00 0.00 84 1063.6
20260507211605 50 45 6.0 0.0 0.00 0.00 0.00 83 1063.6
20260507211450 50 45 0.0 0.0 0.00 0.00 0.00 83 1063.5
20260507211328 50 45 0.0 0.0 0.00 0.00 0.00 83 1063.5
20260507211213 50 67 0.0 0.0 0.00 0.00 0.00 83 1063.6
20260507211043 50 45 0.0 0.0 0.00 0.00 0.00 83 1063.6
20260507210921 50 45 4.0 0.0 0.00 0.00 0.00 83 1063.6
20260507210800 50 90 0.0 0.0 0.00 0.00 0.00 83 1063.6
20260507210646 50 90 4.0 0.0 0.00 0.00 0.00 83 1063.6
20260507210539 50 67 3.0 0.0 0.00 0.00 0.00 83 1063.6
20260507210426 50 90 0.0 0.0 0.00 0.00 0.00 83 1063.5
20260507210313 50 45 6.0 0.0 0.00 0.00 0.00 83 1063.6
20260507210207 50 67 0.0 0.0 0.00 0.00 0.00 83 1063.5
20260507210101 50 67 5.0 0.0 0.00 0.00 0.00 83 1063.5
20260507205947 50 67 4.0 0.0 0.00 0.00 0.00 82 1063.6
20260507205834 50 90 4.0 0.0 0.00 0.00 0.00 82 1063.5
20260507205728 50 45 0.0 0.0 0.00 0.00 0.00 82 1063.5
20260507205623 50 90 5.0 0.0 0.00 0.00 0.00 82 1063.6
20260507205502 50 90 7.0 0.0 0.00 0.00 0.00 82 1063.5
20260507205341 50 67 4.0 0.0 0.00 0.00 0.00 82 1063.5
20260507205229 50 90 1.0 0.0 0.00 0.00 0.00 82 1063.5
20260507205121 50 45 3.0 0.0 0.00 0.00 0.00 82 1063.5
20260507205003 50 67 0.0 0.0 0.00 0.00 0.00 82 1063.5
20260507204857 50 67 5.0 0.0 0.00 0.00 0.00 82 1063.5
20260507204750 50 90 5.0 0.0 0.00 0.00 0.00 82 1063.5
20260507204637 50 90 3.0 0.0 0.00 0.00 0.00 82 1063.5
20260507204516 50 67 5.0 0.0 0.00 0.00 0.00 82 1063.5
20260507204401 50 45 6.0 0.0 0.00 0.00 0.00 82 1063.5
20260507204247 50 67 1.0 0.0 0.00 0.00 0.00 82 1063.5
20260507204133 50 45 6.0 0.0 0.00 0.00 0.00 83 1063.5
20260507204011 50 67 5.0 0.0 0.00 0.00 0.00 83 1063.5
20260507203857 50 90 3.0 0.0 0.00 0.00 0.00 83 1063.5
20260507203751 50 90 3.0 0.0 0.00 0.00 0.00 83 1063.5
20260507203638 50 90 8.0 0.0 0.00 0.00 0.00 83 1063.5
20260507203530 50 67 5.0 0.0 0.00 0.00 0.00 83 1063.5
20260507203408 50 90 7.0 0.0 0.00 0.00 0.00 83 1063.5
20260507203254 50 90 3.0 0.0 0.00 0.00 0.00 83 1063.5
20260507203149 50 90 4.0 0.0 0.00 0.00 0.00 83 1063.5
20260507203041 50 90 9.0 0.0 0.00 0.00 0.00 83 1063.5
20260507202920 50 90 5.0 0.0 0.00 0.00 0.00 83 1063.5
20260507202805 50 112 5.0 0.0 0.00 0.00 0.00 83 1063.6
20260507202651 50 112 8.0 0.0 0.00 0.00 0.00 83 1063.5
20260507202545 50 67 4.0 0.0 0.00 0.00 0.00 83 1063.5
20260507202424 50 67 0.0 0.0 0.00 0.00 0.00 83 1063.5
20260507202308 50 90 4.0 0.0 0.00 0.00 0.00 83 1063.6
20260507202154 50 90 0.0 0.0 0.00 0.00 0.00 83 1063.5
20260507202049 50 67 0.0 0.0 0.00 0.00 0.00 83 1063.6
20260507201942 50 45 0.0 0.0 0.00 0.00 0.00 83 1063.6
20260507201837 50 90 6.0 0.0 0.00 0.00 0.00 83 1063.6
20260507201730 50 90 7.0 0.0 0.00 0.00 0.00 83 1063.6
20260507201624 50 90 4.0 0.0 0.00 0.00 0.00 83 1063.6
20260507201503 51 67 5.0 0.0 0.00 0.00 0.00 83 1063.6
20260507201347 51 90 3.0 0.0 0.00 0.00 0.00 83 1063.5
20260507201232 51 90 3.0 0.0 0.00 0.00 0.00 83 1063.5
20260507201120 51 67 6.0 0.0 0.00 0.00 0.00 83 1063.5
20260507201005 51 90 5.0 0.0 0.00 0.00 0.00 83 1063.4
20260507200858 51 45 6.0 0.0 0.00 0.00 0.00 83 1063.4
20260507200743 51 67 5.0 0.0 0.00 0.00 0.00 83 1063.4
20260507200630 51 67 2.0 0.0 0.00 0.00 0.00 83 1063.5
20260507200525 51 67 3.0 0.0 0.00 0.00 0.00 83 1063.4
20260507200417 51 90 5.0 0.0 0.00 0.00 0.00 84 1063.4
20260507200248 51 67 6.0 0.0 0.00 0.00 0.00 84 1063.4
20260507200134 51 90 9.0 0.0 0.00 0.00 0.00 84 1063.4
20260507195646 51 67 5.0 0.0 0.00 0.00 0.00 84 1063.3
20260507195540 51 45 7.0 0.0 0.00 0.00 0.00 84 1063.4
20260507195434 51 112 6.0 0.0 0.00 0.00 0.00 84 1063.4
20260507195325 51 90 3.0 0.0 0.00 0.00 0.00 84 1063.4
20260507195212 51 67 3.0 0.0 0.00 0.00 0.00 84 1063.4
20260507195106 51 67 4.0 0.0 0.00 0.00 0.00 84 1063.4
20260507195001 51 90 5.0 0.0 0.00 0.00 0.00 84 1063.3
20260507194852 51 67 3.0 0.0 0.00 0.00 0.00 84 1063.3
20260507194723 51 45 5.0 0.0 0.00 0.00 0.00 84 1063.3
20260507194608 51 22 2.0 0.0 0.00 0.00 0.00 84 1063.3
20260507194453 51 45 5.0 0.0 0.00 0.00 0.00 84 1063.3
20260507194340 51 67 8.0 0.0 0.00 0.00 0.00 84 1063.2
20260507194217 51 67 0.0 0.0 0.00 0.00 0.00 84 1063.3
20260507194104 51 45 3.0 0.0 0.00 0.00 0.00 84 1063.3
20260507193941 51 67 4.0 0.0 0.00 0.00 0.00 84 1063.2
20260507193827 51 90 0.0 0.0 0.00 0.00 0.00 84 1063.3
20260507193721 51 22 0.0 0.0 0.00 0.00 0.00 84 1063.2
20260507193615 51 90 6.0 0.0 0.00 0.00 0.00 84 1063.2
20260507193509 51 45 6.0 0.0 0.00 0.00 0.00 84 1063.1
20260507193403 51 90 2.0 0.0 0.00 0.00 0.00 84 1063.1
20260507193258 51 45 6.0 0.0 0.00 0.00 0.00 83 1063.1
20260507193151 51 45 5.0 0.0 0.00 0.00 0.00 83 1063.1
20260507193038 51 45 6.0 0.0 0.00 0.00 0.00 83 1063.1
20260507192933 51 90 0.0 0.0 0.00 0.00 0.00 83 1063.0
20260507192823 51 67 5.0 0.0 0.00 0.00 0.00 83 1062.9
20260507192705 51 45 5.0 0.0 0.00 0.00 0.00 83 1063.0
20260507192556 51 22 6.0 0.0 0.00 0.00 0.00 83 1062.9
20260507192442 51 45 5.0 0.0 0.00 0.00 0.00 83 1062.9
20260507192336 51 67 4.0 0.0 0.00 0.00 0.00 82 1062.9
20260507192221 51 45 0.0 0.0 0.00 0.00 0.00 82 1062.9
20260507192058 51 90 5.0 0.0 0.00 0.00 0.00 83 1062.9
20260507191945 51 45 6.0 0.0 0.00 0.00 0.00 82 1062.9
20260507191840 51 112 0.0 0.0 0.00 0.00 0.00 82 1062.9
20260507191733 51 45 2.0 0.0 0.00 0.00 0.00 82 1063.0
20260507191628 52 90 0.0 0.0 0.00 0.00 0.00 82 1063.0
20260507191523 52 90 0.0 0.0 0.00 0.00 0.00 82 1062.9
20260507191417 52 45 3.0 0.0 0.00 0.00 0.00 82 1063.0
20260507191312 52 22 5.0 0.0 0.00 0.00 0.00 82 1062.9
20260507191151 52 67 0.0 0.0 0.00 0.00 0.00 81 1062.9
20260507191029 52 67 4.0 0.0 0.00 0.00 0.00 81 1063.0
20260507190916 52 67 2.0 0.0 0.00 0.00 0.00 81 1063.0
20260507190805 52 45 0.0 0.0 0.00 0.00 0.00 81 1063.0
20260507190658 52 45 0.0 0.0 0.00 0.00 0.00 81 1063.0
20260507190545 52 67 0.0 0.0 0.00 0.00 0.00 81 1062.9
20260507190432 52 67 0.0 0.0 0.00 0.00 0.00 81 1062.9
20260507190327 52 67 0.0 0.0 0.00 0.00 0.00 81 1062.9
20260507190208 52 45 3.0 0.0 0.00 0.00 0.00 80 1062.9
20260507185958 53 67 3.0 0.0 0.00 0.00 0.00 80 1062.8
20260507185843 53 45 0.0 0.0 0.00 0.00 0.00 80 1062.7
20260507185729 53 67 1.0 0.0 0.00 0.00 0.00 80 1062.8
20260507185609 53 45 6.0 0.0 0.00 0.00 0.00 80 1062.9
20260507185505 53 90 5.0 0.0 0.00 0.00 0.00 80 1062.8
20260507185350 53 45 7.0 0.0 0.00 0.00 0.00 80 1062.9
20260507185237 53 67 4.0 0.0 0.00 0.00 0.00 80 1062.9
20260507185131 53 45 0.0 0.0 0.00 0.00 0.00 80 1062.9
20260507185012 53 67 0.0 0.0 0.00 0.00 0.00 80 1062.9
20260507184858 53 67 0.0 0.0 0.00 0.00 0.00 80 1062.8
20260507184745 53 67 6.0 0.0 0.00 0.00 0.00 80 1062.9
20260507184631 52 90 0.0 0.0 0.00 0.00 0.00 80 1062.8
20260507184510 52 67 0.0 0.0 0.00 0.00 0.00 80 1062.8
20260507184356 52 45 0.0 0.0 0.00 0.00 0.00 80 1062.8
20260507184238 52 67 0.0 0.0 0.00 0.00 0.00 80 1062.8
20260507184131 52 90 6.0 0.0 0.00 0.00 0.00 80 1062.8
20260507184009 52 67 0.0 0.0 0.00 0.00 0.00 80 1062.8
20260507183855 53 90 7.0 0.0 0.00 0.00 0.00 80 1062.9
20260507183745 53 45 5.0 0.0 0.00 0.00 0.00 80 1062.8
20260507183640 53 45 7.0 0.0 0.00 0.00 0.00 80 1062.9
20260507183534 53 90 0.0 0.0 0.00 0.00 0.00 80 1062.8
20260507183423 53 45 0.0 0.0 0.00 0.00 0.00 80 1062.8
20260507183315 53 90 3.0 0.0 0.00 0.00 0.00 80 1062.8
20260507183154 53 112 5.0 0.0 0.00 0.00 0.00 80 1062.8
20260507183043 53 45 5.0 0.0 0.00 0.00 0.00 79 1062.8
20260507182938 53 45 6.0 0.0 0.00 0.00 0.00 79 1062.7
20260507182823 53 112 3.0 0.0 0.00 0.00 0.00 79 1062.7
20260507182712 53 90 4.0 0.0 0.00 0.00 0.00 79 1062.8
20260507182603 53 45 4.0 0.0 0.00 0.00 0.00 79 1062.8
20260507182446 53 22 6.0 0.0 0.00 0.00 0.00 79 1062.7
20260507182339 53 67 7.0 0.0 0.00 0.00 0.00 79 1062.7
20260507182227 53 45 8.0 0.0 0.00 0.00 0.00 78 1062.7
20260507182120 53 67 7.0 0.0 0.00 0.00 0.00 78 1062.7
20260507182007 53 67 4.0 0.0 0.00 0.00 0.00 78 1062.6
20260507181846 53 22 0.0 0.0 0.00 0.00 0.00 78 1062.6
20260507181734 53 22 5.0 0.0 0.00 0.00 0.00 78 1062.7
20260507181630 53 67 7.0 0.0 0.00 0.00 0.00 79 1062.7
20260507181522 53 90 0.0 0.0 0.00 0.00 0.00 78 1062.7
20260507181410 53 22 3.0 0.0 0.00 0.00 0.00 78 1062.8
20260507181304 53 45 4.0 0.0 0.00 0.00 0.00 78 1062.7
20260507181137 53 45 6.0 0.0 0.00 0.00 0.00 78 1062.7
20260507181031 53 90 0.0 0.0 0.00 0.00 0.00 78 1062.7
20260507180918 53 22 5.0 0.0 0.00 0.00 0.00 78 1062.8
20260507180812 53 22 6.0 0.0 0.00 0.00 0.00 78 1062.7
20260507180658 53 67 4.0 0.0 0.00 0.00 0.00 78 1062.8
20260507180537 53 45 7.0 0.0 0.00 0.00 0.00 78 1062.7
20260507180416 53 45 8.0 0.0 0.00 0.00 0.00 78 1062.7
20260507180258 53 112 5.0 0.0 0.00 0.00 0.00 78 1062.7
20260507180149 53 67 10.0 0.0 0.00 0.00 0.00 78 1062.8
20260507180036 53 45 5.0 0.0 0.00 0.00 0.00 78 1062.7
20260507175931 53 112 3.0 0.0 0.00 0.00 0.00 78 1062.8
20260507175826 53 45 3.0 0.0 0.00 0.00 0.00 78 1062.9
20260507175714 53 45 10.0 0.0 0.00 0.00 0.00 78 1062.8
20260507175559 53 112 6.0 0.0 0.00 0.00 0.00 78 1062.7
20260507175438 53 0 0.0 0.0 0.00 0.00 0.00 78 1062.8
20260507175325 53 45 3.0 0.0 0.00 0.00 0.00 78 1062.8
20260507175214 53 22 4.0 0.0 0.00 0.00 0.00 77 1062.8
20260507175106 54 45 7.0 0.0 0.00 0.00 0.00 77 1062.7
20260507174945 54 45 6.0 0.0 0.00 0.00 0.00 77 1062.6
20260507174838 54 45 0.0 0.0 0.00 0.00 0.00 76 1062.7
20260507174731 54 22 6.0 0.0 0.00 0.00 0.00 76 1062.7
20260507174617 54 22 4.0 0.0 0.00 0.00 0.00 76 1062.7
20260507174456 54 45 0.0 0.0 0.00 0.00 0.00 76 1062.6
20260507174344 54 45 6.0 0.0 0.00 0.00 0.00 76 1062.8
20260507174228 54 67 9.0 0.0 0.00 0.00 0.00 76 1062.7
20260507174108 54 67 7.0 0.0 0.00 0.00 0.00 76 1062.6
20260507173955 54 45 6.0 0.0 0.00 0.00 0.00 76 1062.7
20260507173841 54 22 5.0 0.0 0.00 0.00 0.00 76 1062.7
20260507173730 54 45 0.0 0.0 0.00 0.00 0.00 77 1062.6
20260507173617 54 45 0.0 0.0 0.00 0.00 0.00 77 1062.6
20260507173511 54 45 6.0 0.0 0.00 0.00 0.00 76 1062.5
20260507173358 54 67 0.0 0.0 0.00 0.00 0.00 76 1062.6
20260507173252 54 22 5.0 0.0 0.00 0.00 0.00 76 1062.5
20260507173138 54 22 5.0 0.0 0.00 0.00 0.00 76 1062.5
20260507173017 54 45 4.0 0.0 0.00 0.00 0.00 76 1062.5
20260507172856 54 67 4.0 0.0 0.00 0.00 0.00 76 1062.5
20260507172743 54 67 7.0 0.0 0.00 0.00 0.00 76 1062.5
20260507172622 54 0 7.0 0.0 0.00 0.00 0.00 75 1062.5
20260507172453 55 67 5.0 0.0 0.00 0.00 0.00 75 1062.5
20260507172340 55 45 6.0 0.0 0.00 0.00 0.00 75 1062.5
20260507172235 55 67 7.0 0.0 0.00 0.00 0.00 75 1062.5
20260507172123 55 22 5.0 0.0 0.00 0.00 0.00 75 1062.5
20260507172017 55 22 6.0 0.0 0.00 0.00 0.00 75 1062.5
20260507171855 55 45 4.0 0.0 0.00 0.00 0.00 75 1062.5
20260507171734 55 22 5.0 0.0 0.00 0.00 0.00 74 1062.5
20260507171621 55 22 0.0 0.0 0.00 0.00 0.00 74 1062.5
20260507171459 55 22 2.0 0.0 0.00 0.00 0.00 74 1062.5
20260507171346 55 45 0.0 0.0 0.00 0.00 0.00 74 1062.3
20260507171235 55 22 3.0 0.0 0.00 0.00 0.00 73 1062.3
20260507171128 55 67 8.0 0.0 0.00 0.00 0.00 73 1062.3
20260507171000 55 45 6.0 0.0 0.00 0.00 0.00 73 1062.4
20260507170846 55 45 8.0 0.0 0.00 0.00 0.00 72 1062.4
20260507170724 55 45 0.0 0.0 0.00 0.00 0.00 72 1062.4
20260507170603 55 45 7.0 0.0 0.00 0.00 0.00 72 1062.3
20260507170444 55 45 6.0 0.0 0.00 0.00 0.00 72 1062.3
20260507170329 55 45 8.0 0.0 0.00 0.00 0.00 72 1062.3
20260507170208 56 0 4.0 0.0 0.00 0.00 0.00 72 1062.3
20260507165948 56 337 4.0 0.0 0.00 0.00 0.00 72 1062.3
20260507165828 56 0 6.0 0.0 0.00 0.00 0.00 72 1062.2
20260507165715 56 0 4.0 0.0 0.00 0.00 0.00 72 1062.3
20260507165609 56 22 4.0 0.0 0.00 0.00 0.00 71 1062.3
20260507165503 56 22 5.0 0.0 0.00 0.00 0.00 71 1062.1
20260507165350 56 22 7.0 0.0 0.00 0.00 0.00 71 1062.2
20260507165245 56 22 7.0 0.0 0.00 0.00 0.00 71 1062.2
20260507165139 56 0 6.0 0.0 0.00 0.00 0.00 71 1062.1
20260507165034 56 22 4.0 0.0 0.00 0.00 0.00 71 1062.1
20260507164928 56 22 9.0 0.0 0.00 0.00 0.00 71 1062.2
20260507164823 56 0 4.0 0.0 0.00 0.00 0.00 71 1062.2
20260507164717 56 22 7.0 0.0 0.00 0.00 0.00 71 1062.3
20260507164610 56 0 11.0 0.0 0.00 0.00 0.00 70 1062.1
20260507164450 56 22 9.0 0.0 0.00 0.00 0.00 70 1062.2
20260507164345 56 0 5.0 0.0 0.00 0.00 0.00 70 1062.3
20260507164241 56 45 7.0 0.0 0.00 0.00 0.00 70 1062.3
20260507164135 56 22 4.0 0.0 0.00 0.00 0.00 70 1062.2
20260507164028 56 22 6.0 0.0 0.00 0.00 0.00 70 1062.1
20260507163907 56 45 10.0 0.0 0.00 0.00 0.00 70 1062.3
20260507163738 56 22 3.0 0.0 0.00 0.00 0.00 70 1062.3
20260507163625 56 22 3.0 0.0 0.00 0.00 0.00 70 1062.3
20260507163512 56 22 9.0 0.0 0.00 0.00 0.00 70 1062.2
20260507163401 56 0 5.0 0.0 0.00 0.00 0.00 70 1062.2
20260507163246 56 0 6.0 0.0 0.00 0.00 0.00 69 1062.2
20260507163126 56 0 3.0 0.0 0.00 0.00 0.00 69 1062.2
20260507163011 57 0 3.0 0.0 0.00 0.00 0.00 68 1062.3
20260507162851 57 45 4.0 0.0 0.00 0.00 0.00 68 1062.2
20260507162746 57 45 4.0 0.0 0.00 0.00 0.00 69 1062.3
20260507162640 57 0 3.0 0.0 0.00 0.00 0.00 68 1062.3
20260507162519 57 22 0.0 0.0 0.00 0.00 0.00 67 1062.2
20260507162406 57 22 5.0 0.0 0.00 0.00 0.00 67 1062.2
20260507162253 57 45 9.0 0.0 0.00 0.00 0.00 67 1062.2
20260507162149 57 22 7.0 0.0 0.00 0.00 0.00 67 1062.2
20260507162044 58 45 6.0 0.0 0.00 0.00 0.00 67 1062.3
20260507161929 58 0 4.0 0.0 0.00 0.00 0.00 67 1062.2
20260507161810 58 0 0.0 0.0 0.00 0.00 0.00 67 1062.2
20260507161704 58 45 4.0 0.0 0.00 0.00 0.00 67 1062.2
20260507161601 58 0 0.0 0.0 0.00 0.00 0.00 66 1062.2
20260507161453 58 45 8.0 0.0 0.00 0.00 0.00 66 1062.2
20260507161340 58 45 6.0 0.0 0.00 0.00 0.00 66 1062.2
20260507161235 58 45 4.0 0.0 0.00 0.00 0.00 66 1062.2
20260507161124 58 45 5.0 0.0 0.00 0.00 0.00 66 1062.2
20260507161020 58 0 5.0 0.0 0.00 0.00 0.00 66 1062.2
20260507160858 59 0 6.0 0.0 0.00 0.00 0.00 66 1062.2
20260507160750 59 337 5.0 0.0 0.00 0.00 0.00 65 1062.3
20260507160630 59 0 7.0 0.0 0.00 0.00 0.00 64 1062.2
20260507160516 60 22 5.0 0.0 0.00 0.00 0.00 63 1062.2
20260507160355 60 45 12.0 0.0 0.00 0.00 0.00 63 1062.3
20260507160250 60 0 13.0 0.0 0.00 0.00 0.00 64 1062.2
20260507160129 60 22 6.0 0.0 0.00 0.00 0.00 64 1062.2
20260507160015 60 0 0.0 0.0 0.00 0.00 0.00 64 1062.2
20260507155902 60 22 0.0 0.0 0.00 0.00 0.00 64 1062.2
20260507155749 60 0 5.0 0.0 0.00 0.00 0.00 64 1062.2
20260507155636 60 45 6.0 0.0 0.00 0.00 0.00 64 1062.3
20260507155523 60 22 3.0 0.0 0.00 0.00 0.00 64 1062.3
20260507155401 60 22 6.0 0.0 0.00 0.00 0.00 63 1062.2
20260507155241 60 45 3.0 0.0 0.00 0.00 0.00 62 1062.3
20260507155138 60 22 4.0 0.0 0.00 0.00 0.00 64 1062.1
20260507155030 60 45 6.0 0.0 0.00 0.00 0.00 64 1062.3
20260507154909 60 45 4.0 0.0 0.00 0.00 0.00 63 1062.3
20260507154748 60 45 8.0 0.0 0.00 0.00 0.00 64 1062.2
20260507154634 60 0 5.0 0.0 0.00 0.00 0.00 64 1062.3
20260507154514 60 22 5.0 0.0 0.00 0.00 0.00 65 1062.2
20260507154408 60 22 3.0 0.0 0.00 0.00 0.00 64 1062.2
20260507154247 60 45 8.0 0.0 0.00 0.00 0.00 64 1062.2
20260507154119 60 315 3.0 0.0 0.00 0.00 0.00 64 1062.2
20260507154013 60 22 7.0 0.0 0.00 0.00 0.00 63 1062.2
20260507153908 60 22 5.0 0.0 0.00 0.00 0.00 63 1062.1
20260507153755 60 22 6.0 0.0 0.00 0.00 0.00 63 1062.1
20260507153650 60 45 6.0 0.0 0.00 0.00 0.00 63 1062.1
20260507153537 60 22 7.0 0.0 0.00 0.00 0.00 63 1062.3
20260507153420 60 22 8.0 0.0 0.00 0.00 0.00 63 1062.2
20260507153303 60 0 6.0 0.0 0.00 0.00 0.00 63 1062.2
20260507153157 60 45 7.0 0.0 0.00 0.00 0.00 63 1062.3
20260507153036 60 22 0.0 0.0 0.00 0.00 0.00 63 1062.2
20260507152923 60 22 11.0 0.0 0.00 0.00 0.00 63 1062.2
20260507152803 60 337 15.0 0.0 0.00 0.00 0.00 64 1062.3
20260507152640 60 22 4.0 0.0 0.00 0.00 0.00 64 1062.3
20260507152527 60 22 0.0 0.0 0.00 0.00 0.00 63 1062.2
20260507152423 60 67 9.0 0.0 0.00 0.00 0.00 63 1062.3
20260507152317 60 45 12.0 0.0 0.00 0.00 0.00 63 1062.2
20260507152156 60 22 3.0 0.0 0.00 0.00 0.00 63 1062.2
20260507152052 60 45 0.0 0.0 0.00 0.00 0.00 63 1062.2
20260507151946 60 22 6.0 0.0 0.00 0.00 0.00 63 1062.2
20260507151825 60 0 6.0 0.0 0.00 0.00 0.00 63 1062.2
20260507151720 60 22 3.0 0.0 0.00 0.00 0.00 63 1062.2
20260507151606 60 22 6.0 0.0 0.00 0.00 0.00 63 1062.1
20260507151453 60 22 7.0 0.0 0.00 0.00 0.00 63 1062.2
20260507151333 60 22 1.0 0.0 0.00 0.00 0.00 63 1062.2
20260507151227 60 22 6.0 0.0 0.00 0.00 0.00 63 1062.2
20260507151123 60 45 9.0 0.0 0.00 0.00 0.00 63 1062.3
20260507151018 61 22 7.0 0.0 0.00 0.00 0.00 62 1062.2
20260507150906 61 22 6.0 0.0 0.00 0.00 0.00 63 1062.2
20260507150758 61 22 5.0 0.0 0.00 0.00 0.00 63 1062.2
20260507150638 61 45 0.0 0.0 0.00 0.00 0.00 62 1062.2
20260507150525 61 67 10.0 0.0 0.00 0.00 0.00 63 1062.2
20260507150420 61 22 7.0 0.0 0.00 0.00 0.00 63 1062.0
20260507150309 60 0 7.0 0.0 0.00 0.00 0.00 63 1062.1
20260507150202 60 0 7.0 0.0 0.00 0.00 0.00 63 1062.1
20260507150040 60 45 6.0 0.0 0.00 0.00 0.00 61 1062.1
20260507145927 60 22 9.0 0.0 0.00 0.00 0.00 62 1062.2
20260507145758 60 0 7.0 0.0 0.00 0.00 0.00 63 1062.0
20260507145644 60 22 7.0 0.0 0.00 0.00 0.00 63 1062.1
20260507145534 60 22 6.0 0.0 0.00 0.00 0.00 63 1062.1
20260507145420 60 90 9.0 0.0 0.00 0.00 0.00 62 1062.1
20260507145314 61 45 12.0 0.0 0.00 0.00 0.00 61 1062.1
20260507145209 61 22 3.0 0.0 0.00 0.00 0.00 62 1062.1
20260507145055 61 22 8.0 0.0 0.00 0.00 0.00 62 1062.1
20260507144942 61 22 8.0 0.0 0.00 0.00 0.00 62 1062.0
20260507144837 61 0 5.0 0.0 0.00 0.00 0.00 63 1062.1
20260507144724 60 22 6.0 0.0 0.00 0.00 0.00 63 1062.0
20260507144603 61 0 5.0 0.0 0.00 0.00 0.00 62 1062.0
20260507144452 60 90 9.0 0.0 0.00 0.00 0.00 64 1062.1
20260507144345 60 22 9.0 0.0 0.00 0.00 0.00 64 1062.0
20260507144240 60 45 7.0 0.0 0.00 0.00 0.00 64 1062.0
20260507144119 60 67 6.0 0.0 0.00 0.00 0.00 64 1062.0
20260507144008 60 337 6.0 0.0 0.00 0.00 0.00 63 1062.0
20260507143902 60 0 8.0 0.0 0.00 0.00 0.00 63 1062.0
20260507143755 60 22 6.0 0.0 0.00 0.00 0.00 64 1062.1
20260507143643 60 0 6.0 0.0 0.00 0.00 0.00 63 1062.1
20260507143537 60 0 6.0 0.0 0.00 0.00 0.00 62 1062.1
20260507143432 60 0 7.0 0.0 0.00 0.00 0.00 62 1062.1
20260507143319 61 22 6.0 0.0 0.00 0.00 0.00 62 1062.1
20260507143158 60 0 9.0 0.0 0.00 0.00 0.00 62 1062.1
20260507143045 60 22 4.0 0.0 0.00 0.00 0.00 63 1062.0
20260507142941 60 22 6.0 0.0 0.00 0.00 0.00 63 1062.0
20260507142835 60 22 6.0 0.0 0.00 0.00 0.00 63 1062.2
20260507142729 60 0 6.0 0.0 0.00 0.00 0.00 63 1062.1
20260507142616 60 0 9.0 0.0 0.00 0.00 0.00 63 1062.1
20260507142455 60 45 6.0 0.0 0.00 0.00 0.00 63 1062.2
20260507142341 60 22 0.0 0.0 0.00 0.00 0.00 63 1062.2
20260507142221 60 22 7.0 0.0 0.00 0.00 0.00 63 1062.2
20260507142108 60 22 15.0 0.0 0.00 0.00 0.00 64 1062.1
20260507141955 60 45 9.0 0.0 0.00 0.00 0.00 63 1062.1
20260507141850 60 337 7.0 0.0 0.00 0.00 0.00 63 1062.1
20260507141739 60 22 6.0 0.0 0.00 0.00 0.00 64 1062.1
20260507141631 60 22 7.0 0.0 0.00 0.00 0.00 65 1062.1
20260507141512 60 45 6.0 0.0 0.00 0.00 0.00 64 1062.2
20260507141406 60 0 7.0 0.0 0.00 0.00 0.00 65 1062.1
20260507141302 60 0 5.0 0.0 0.00 0.00 0.00 65 1062.2
20260507141155 60 22 12.0 0.0 0.00 0.00 0.00 65 1062.1
20260507141049 59 22 7.0 0.0 0.00 0.00 0.00 65 1062.1
20260507140935 59 22 8.0 0.0 0.00 0.00 0.00 65 1062.1
20260507140830 59 45 4.0 0.0 0.00 0.00 0.00 66 1062.1
20260507140718 59 45 11.0 0.0 0.00 0.00 0.00 67 1062.1
20260507140603 59 22 7.0 0.0 0.00 0.00 0.00 66 1062.1
20260507140450 59 0 6.0 0.0 0.00 0.00 0.00 66 1062.2
20260507140337 58 0 6.0 0.0 0.00 0.00 0.00 66 1062.2
20260507140233 59 67 8.0 0.0 0.00 0.00 0.00 66 1062.2
20260507140127 58 45 12.0 0.0 0.00 0.00 0.00 68 1062.2
20260507140014 58 45 12.0 0.0 0.00 0.00 0.00 68 1062.2
20260507135901 58 45 6.0 0.0 0.00 0.00 0.00 68 1062.2
20260507135750 58 22 0.0 0.0 0.00 0.00 0.00 69 1062.2
20260507135645 58 22 0.0 0.0 0.00 0.00 0.00 68 1062.1
20260507135538 57 45 8.0 0.0 0.00 0.00 0.00 69 1062.2
20260507135425 57 22 5.0 0.0 0.00 0.00 0.00 69 1062.2
20260507135320 57 0 7.0 0.0 0.00 0.00 0.00 68 1062.1
20260507135215 57 337 3.0 0.0 0.00 0.00 0.00 68 1062.2
20260507135102 57 0 10.0 0.0 0.00 0.00 0.00 67 1062.2
20260507134949 57 0 5.0 0.0 0.00 0.00 0.00 67 1062.2
20260507134836 57 0 5.0 0.0 0.00 0.00 0.00 67 1062.2
20260507134733 57 0 6.0 0.0 0.00 0.00 0.00 67 1062.2
20260507134625 57 45 5.0 0.0 0.00 0.00 0.00 67 1062.1
20260507134512 57 0 18.0 0.0 0.00 0.00 0.00 67 1062.1
20260507134407 57 67 7.0 0.0 0.00 0.00 0.00 67 1062.0
20260507134256 57 45 11.0 0.0 0.00 0.00 0.00 67 1062.1
20260507134149 57 0 10.0 0.0 0.00 0.00 0.00 67 1062.1
20260507134028 57 45 7.0 0.0 0.00 0.00 0.00 66 1062.1
20260507133915 57 0 0.0 0.0 0.00 0.00 0.00 67 1062.1
20260507133801 57 337 7.0 0.0 0.00 0.00 0.00 67 1062.1
20260507133649 57 45 5.0 0.0 0.00 0.00 0.00 67 1062.1
20260507133536 57 22 9.0 0.0 0.00 0.00 0.00 67 1062.1
20260507133423 57 45 6.0 0.0 0.00 0.00 0.00 66 1062.1
20260507133317 57 22 6.0 0.0 0.00 0.00 0.00 66 1062.1
20260507133156 57 45 10.0 0.0 0.00 0.00 0.00 67 1062.1
20260507133043 57 22 6.0 0.0 0.00 0.00 0.00 66 1062.1
20260507132929 57 45 4.0 0.0 0.00 0.00 0.00 67 1062.0
20260507132808 57 45 11.0 0.0 0.00 0.00 0.00 67 1062.0
20260507132655 57 0 0.0 0.0 0.00 0.00 0.00 66 1062.0
20260507132542 57 0 0.0 0.0 0.00 0.00 0.00 67 1061.9
20260507132429 57 22 0.0 0.0 0.00 0.00 0.00 66 1062.0
20260507132309 57 22 9.0 0.0 0.00 0.00 0.00 67 1062.0
20260507132205 57 45 7.0 0.0 0.00 0.00 0.00 66 1062.0
20260507132058 57 0 6.0 0.0 0.00 0.00 0.00 66 1062.0
20260507131945 57 22 14.0 0.0 0.00 0.00 0.00 67 1062.0
20260507131840 57 112 6.0 0.0 0.00 0.00 0.00 67 1062.0
20260507131727 57 0 6.0 0.0 0.00 0.00 0.00 66 1062.0
20260507131615 57 45 8.0 0.0 0.00 0.00 0.00 66 1062.0
20260507131509 57 22 8.0 0.0 0.00 0.00 0.00 66 1061.9
20260507131355 57 22 4.0 0.0 0.00 0.00 0.00 66 1062.0
20260507131242 57 0 7.0 0.0 0.00 0.00 0.00 66 1062.0
20260507131137 58 0 6.0 0.0 0.00 0.00 0.00 66 1062.0
20260507131008 58 45 9.0 0.0 0.00 0.00 0.00 65 1062.0
20260507130855 58 337 6.0 0.0 0.00 0.00 0.00 65 1062.0
20260507130750 58 22 11.0 0.0 0.00 0.00 0.00 65 1062.0
20260507130636 58 22 7.0 0.0 0.00 0.00 0.00 66 1062.1
20260507130523 58 315 3.0 0.0 0.00 0.00 0.00 66 1062.0
20260507130410 58 0 6.0 0.0 0.00 0.00 0.00 66 1062.0
20260507130248 58 22 0.0 0.0 0.00 0.00 0.00 66 1062.0
20260507130129 58 45 9.0 0.0 0.00 0.00 0.00 66 1061.9
20260507130018 58 45 10.0 0.0 0.00 0.00 0.00 66 1061.9
20260507125909 58 45 0.0 0.0 0.00 0.00 0.00 66 1061.9
20260507125805 58 45 6.0 0.0 0.00 0.00 0.00 66 1061.9
20260507125659 58 67 9.0 0.0 0.00 0.00 0.00 66 1061.9
20260507125546 58 0 1.0 0.0 0.00 0.00 0.00 66 1061.9
20260507125433 57 67 11.0 0.0 0.00 0.00 0.00 65 1061.8
20260507125320 58 22 5.0 0.0 0.00 0.00 0.00 64 1061.8
20260507125215 58 22 6.0 0.0 0.00 0.00 0.00 64 1061.9
20260507125101 58 22 7.0 0.0 0.00 0.00 0.00 65 1061.8
20260507124948 58 45 0.0 0.0 0.00 0.00 0.00 65 1061.9
20260507124826 58 0 0.0 0.0 0.00 0.00 0.00 64 1061.8
20260507124713 58 0 9.0 0.0 0.00 0.00 0.00 64 1061.8
20260507124609 58 22 10.0 0.0 0.00 0.00 0.00 63 1061.9
20260507124503 58 22 3.0 0.0 0.00 0.00 0.00 63 1061.8
20260507124358 58 337 5.0 0.0 0.00 0.00 0.00 64 1061.9
20260507124245 58 0 6.0 0.0 0.00 0.00 0.00 64 1061.9
20260507124142 58 22 0.0 0.0 0.00 0.00 0.00 64 1061.9
20260507124034 58 22 10.0 0.0 0.00 0.00 0.00 63 1061.9
20260507123922 58 67 7.0 0.0 0.00 0.00 0.00 63 1061.9
20260507123809 59 22 5.0 0.0 0.00 0.00 0.00 62 1061.9
20260507123704 59 45 8.0 0.0 0.00 0.00 0.00 62 1061.9
20260507123551 59 45 2.0 0.0 0.00 0.00 0.00 61 1061.9
20260507123437 59 0 10.0 0.0 0.00 0.00 0.00 61 1061.9
20260507123317 59 90 0.0 0.0 0.00 0.00 0.00 61 1061.9
20260507123211 60 45 6.0 0.0 0.00 0.00 0.00 60 1061.9
20260507123050 60 0 4.0 0.0 0.00 0.00 0.00 61 1061.9
20260507122936 60 0 6.0 0.0 0.00 0.00 0.00 60 1061.8
20260507122824 60 22 0.0 0.0 0.00 0.00 0.00 59 1061.8
20260507122710 60 337 8.0 0.0 0.00 0.00 0.00 59 1061.9
20260507122557 60 22 9.0 0.0 0.00 0.00 0.00 59 1061.9
20260507122438 61 22 4.0 0.0 0.00 0.00 0.00 58 1061.9
20260507122331 61 67 8.0 0.0 0.00 0.00 0.00 58 1061.9
20260507122217 61 45 7.0 0.0 0.00 0.00 0.00 57 1061.9
20260507122105 62 337 9.0 0.0 0.00 0.00 0.00 57 1061.9
20260507121952 62 22 5.0 0.0 0.00 0.00 0.00 57 1062.0
20260507121838 62 0 5.0 0.0 0.00 0.00 0.00 57 1061.9
20260507121725 62 0 6.0 0.0 0.00 0.00 0.00 57 1061.9
20260507121619 62 0 7.0 0.0 0.00 0.00 0.00 57 1061.9
20260507121458 62 45 4.0 0.0 0.00 0.00 0.00 56 1062.0
20260507121346 62 0 7.0 0.0 0.00 0.00 0.00 58 1061.9
20260507121233 62 0 0.0 0.0 0.00 0.00 0.00 57 1061.9
20260507121127 62 0 6.0 0.0 0.00 0.00 0.00 57 1061.8
20260507121016 63 22 2.0 0.0 0.00 0.00 0.00 56 1061.9
20260507120909 62 45 6.0 0.0 0.00 0.00 0.00 57 1061.9
20260507120758 62 45 3.0 0.0 0.00 0.00 0.00 57 1061.8
20260507120646 63 0 6.0 0.0 0.00 0.00 0.00 56 1061.9
20260507120537 63 0 8.0 0.0 0.00 0.00 0.00 57 1061.9
20260507120425 63 45 4.0 0.0 0.00 0.00 0.00 56 1061.9
20260507120319 63 22 7.0 0.0 0.00 0.00 0.00 56 1061.9
20260507120158 63 45 5.0 0.0 0.00 0.00 0.00 55 1061.9
20260507120045 63 22 8.0 0.0 0.00 0.00 0.00 55 1061.9
20260507115932 63 67 10.0 0.0 0.00 0.00 0.00 55 1062.0
20260507115827 63 0 6.0 0.0 0.00 0.00 0.00 57 1061.9
20260507115700 63 22 5.0 0.0 0.00 0.00 0.00 57 1061.8
20260507115555 63 90 0.0 0.0 0.00 0.00 0.00 56 1061.9
20260507115446 63 45 10.0 0.0 0.00 0.00 0.00 58 1061.9
20260507115331 63 0 6.0 0.0 0.00 0.00 0.00 58 1061.9
20260507115201 63 0 10.0 0.0 0.00 0.00 0.00 58 1061.8
20260507115048 62 67 8.0 0.0 0.00 0.00 0.00 58 1061.9
20260507114943 62 112 6.0 0.0 0.00 0.00 0.00 58 1061.9
20260507114817 62 45 6.0 0.0 0.00 0.00 0.00 58 1061.9
20260507114709 62 45 7.0 0.0 0.00 0.00 0.00 58 1061.9
20260507114555 62 45 12.0 0.0 0.00 0.00 0.00 59 1061.9
20260507114436 62 0 4.0 0.0 0.00 0.00 0.00 58 1061.8
20260507114322 62 22 7.0 0.0 0.00 0.00 0.00 58 1061.8
20260507114207 62 0 10.0 0.0 0.00 0.00 0.00 58 1061.9
20260507114054 62 0 6.0 0.0 0.00 0.00 0.00 58 1061.9
20260507113933 62 22 0.0 0.0 0.00 0.00 0.00 58 1061.9
20260507113813 62 45 12.0 0.0 0.00 0.00 0.00 58 1061.8
20260507113707 62 22 4.0 0.0 0.00 0.00 0.00 59 1061.8
20260507113553 62 67 9.0 0.0 0.00 0.00 0.00 59 1061.9
20260507113434 62 22 0.0 0.0 0.00 0.00 0.00 59 1061.9
20260507113327 62 45 11.0 0.0 0.00 0.00 0.00 58 1061.9
20260507113152 62 0 6.0 0.0 0.00 0.00 0.00 59 1061.9
20260507113047 62 22 8.0 0.0 0.00 0.00 0.00 58 1061.9
20260507112940 62 0 7.0 0.0 0.00 0.00 0.00 58 1061.9
20260507112820 62 0 12.0 0.0 0.00 0.00 0.00 57 1061.9
20260507112709 62 0 5.0 0.0 0.00 0.00 0.00 59 1061.9
20260507112553 62 45 0.0 0.0 0.00 0.00 0.00 58 1061.9
20260507112424 62 337 6.0 0.0 0.00 0.00 0.00 59 1061.9
20260507112310 62 22 5.0 0.0 0.00 0.00 0.00 59 1061.8
20260507112141 62 337 12.0 0.0 0.00 0.00 0.00 60 1061.9
20260507112022 62 0 6.0 0.0 0.00 0.00 0.00 60 1061.8
20260507111915 62 67 6.0 0.0 0.00 0.00 0.00 59 1061.8
20260507111803 62 0 6.0 0.0 0.00 0.00 0.00 60 1061.8
20260507111651 62 22 0.0 0.0 0.00 0.00 0.00 59 1061.8
20260507111544 62 90 9.0 0.0 0.00 0.00 0.00 60 1061.8
20260507111431 62 22 9.0 0.0 0.00 0.00 0.00 60 1061.8
20260507111312 62 22 6.0 0.0 0.00 0.00 0.00 60 1061.8
20260507111207 62 0 0.0 0.0 0.00 0.00 0.00 61 1061.9
20260507111051 62 22 0.0 0.0 0.00 0.00 0.00 60 1061.8
20260507110938 62 67 8.0 0.0 0.00 0.00 0.00 60 1061.9
20260507110811 62 0 6.0 0.0 0.00 0.00 0.00 60 1061.8
20260507110706 62 22 10.0 0.0 0.00 0.00 0.00 61 1061.8
20260507110552 62 22 2.0 0.0 0.00 0.00 0.00 60 1061.8
20260507110447 62 45 10.0 0.0 0.00 0.00 0.00 61 1061.8
20260507110333 62 45 9.0 0.0 0.00 0.00 0.00 61 1061.8
20260507110211 62 0 4.0 0.0 0.00 0.00 0.00 60 1061.8
20260507110042 62 22 8.0 0.0 0.00 0.00 0.00 60 1061.8
20260507105929 62 45 10.0 0.0 0.00 0.00 0.00 59 1061.8
20260507105816 62 0 11.0 0.0 0.00 0.00 0.00 60 1061.8
20260507105657 62 337 3.0 0.0 0.00 0.00 0.00 60 1061.7
20260507105550 62 0 9.0 0.0 0.00 0.00 0.00 59 1061.8
20260507105438 62 45 12.0 0.0 0.00 0.00 0.00 59 1061.7
20260507105334 63 22 8.0 0.0 0.00 0.00 0.00 58 1061.8
20260507105226 63 22 6.0 0.0 0.00 0.00 0.00 57 1061.7
20260507105112 63 0 6.0 0.0 0.00 0.00 0.00 56 1061.8
20260507105006 63 0 7.0 0.0 0.00 0.00 0.00 57 1061.7
20260507104846 63 45 6.0 0.0 0.00 0.00 0.00 57 1061.8
20260507104731 64 337 0.0 0.0 0.00 0.00 0.00 57 1061.7
20260507104610 64 337 7.0 0.0 0.00 0.00 0.00 57 1061.7
20260507104449 64 0 4.0 0.0 0.00 0.00 0.00 57 1061.7
20260507104336 64 0 9.0 0.0 0.00 0.00 0.00 56 1061.7
20260507104217 65 45 12.0 0.0 0.00 0.00 0.00 56 1061.6
20260507104102 65 45 6.0 0.0 0.00 0.00 0.00 57 1061.7
20260507103940 65 337 7.0 0.0 0.00 0.00 0.00 57 1061.7
20260507103828 65 45 4.0 0.0 0.00 0.00 0.00 57 1061.7
20260507103715 65 0 2.0 0.0 0.00 0.00 0.00 57 1061.7
20260507103601 65 315 0.0 0.0 0.00 0.00 0.00 57 1061.6
20260507103440 64 0 4.0 0.0 0.00 0.00 0.00 58 1061.7
20260507103318 64 22 5.0 0.0 0.00 0.00 0.00 57 1061.8
20260507103149 64 45 5.0 0.0 0.00 0.00 0.00 57 1061.7
20260507103036 64 90 5.0 0.0 0.00 0.00 0.00 59 1061.7
20260507102930 64 45 4.0 0.0 0.00 0.00 0.00 59 1061.7
20260507102804 63 22 4.0 0.0 0.00 0.00 0.00 58 1061.7
20260507102656 63 0 2.0 0.0 0.00 0.00 0.00 58 1061.7
20260507102546 63 45 4.0 0.0 0.00 0.00 0.00 59 1061.6
20260507102438 62 0 3.0 0.0 0.00 0.00 0.00 58 1061.7
20260507102317 62 67 6.0 0.0 0.00 0.00 0.00 57 1061.7
20260507102204 63 22 9.0 0.0 0.00 0.00 0.00 58 1061.6
20260507102052 63 22 5.0 0.0 0.00 0.00 0.00 58 1061.6
20260507101947 63 67 6.0 0.0 0.00 0.00 0.00 59 1061.6
20260507101842 63 45 11.0 0.0 0.00 0.00 0.00 59 1061.5
20260507101729 63 0 0.0 0.0 0.00 0.00 0.00 58 1061.6
20260507101615 63 45 8.0 0.0 0.00 0.00 0.00 57 1061.6
20260507101501 63 22 10.0 0.0 0.00 0.00 0.00 58 1061.6
20260507101349 64 22 9.0 0.0 0.00 0.00 0.00 58 1061.6
20260507101237 64 45 6.0 0.0 0.00 0.00 0.00 58 1061.5
20260507101124 64 0 4.0 0.0 0.00 0.00 0.00 58 1061.5
20260507101018 64 45 0.0 0.0 0.00 0.00 0.00 58 1061.4
20260507100906 64 0 5.0 0.0 0.00 0.00 0.00 57 1061.5
20260507100800 64 22 5.0 0.0 0.00 0.00 0.00 57 1061.5
20260507100647 64 90 6.0 0.0 0.00 0.00 0.00 57 1061.5
20260507100543 64 0 8.0 0.0 0.00 0.00 0.00 58 1061.5
20260507100436 64 22 0.0 0.0 0.00 0.00 0.00 57 1061.4
20260507100259 64 0 6.0 0.0 0.00 0.00 0.00 57 1061.5
20260507100153 64 22 4.0 0.0 0.00 0.00 0.00 56 1061.5
20260507100034 64 22 9.0 0.0 0.00 0.00 0.00 57 1061.4
20260507095927 64 22 11.0 0.0 0.00 0.00 0.00 57 1061.4
20260507095805 64 22 0.0 0.0 0.00 0.00 0.00 56 1061.4
20260507095638 64 45 11.0 0.0 0.00 0.00 0.00 56 1061.4
20260507095533 64 0 4.0 0.0 0.00 0.00 0.00 56 1061.4
20260507095421 65 45 8.0 0.0 0.00 0.00 0.00 56 1061.4
20260507095316 65 45 7.0 0.0 0.00 0.00 0.00 56 1061.4
20260507095152 65 22 8.0 0.0 0.00 0.00 0.00 57 1061.3
20260507095031 64 45 0.0 0.0 0.00 0.00 0.00 56 1061.3
20260507094926 65 337 5.0 0.0 0.00 0.00 0.00 56 1061.4
20260507094805 65 0 5.0 0.0 0.00 0.00 0.00 55 1061.3
20260507094645 65 45 8.0 0.0 0.00 0.00 0.00 56 1061.3
20260507094538 65 22 0.0 0.0 0.00 0.00 0.00 55 1061.3
20260507094418 65 90 12.0 0.0 0.00 0.00 0.00 55 1061.2
20260507094304 65 0 5.0 0.0 0.00 0.00 0.00 54 1061.4
20260507094151 65 0 6.0 0.0 0.00 0.00 0.00 56 1061.3
20260507094029 65 337 5.0 0.0 0.00 0.00 0.00 56 1061.2
20260507093908 64 22 0.0 0.0 0.00 0.00 0.00 56 1061.3
20260507093739 64 45 7.0 0.0 0.00 0.00 0.00 56 1061.3
20260507093626 64 112 9.0 0.0 0.00 0.00 0.00 56 1061.4
20260507093521 64 22 4.0 0.0 0.00 0.00 0.00 56 1061.3
20260507093359 64 45 7.0 0.0 0.00 0.00 0.00 56 1061.4
20260507093238 64 22 6.0 0.0 0.00 0.00 0.00 56 1061.3
20260507093125 65 22 3.0 0.0 0.00 0.00 0.00 55 1061.3
20260507093007 65 67 5.0 0.0 0.00 0.00 0.00 55 1061.4
20260507092859 65 67 7.0 0.0 0.00 0.00 0.00 55 1061.4
20260507092746 65 22 5.0 0.0 0.00 0.00 0.00 54 1061.3
20260507092626 65 22 7.0 0.0 0.00 0.00 0.00 53 1061.3
20260507092522 65 45 0.0 0.0 0.00 0.00 0.00 53 1061.3
20260507092415 65 67 6.0 0.0 0.00 0.00 0.00 55 1061.3
20260507092306 64 22 0.0 0.0 0.00 0.00 0.00 56 1061.2
20260507092149 64 45 0.0 0.0 0.00 0.00 0.00 55 1061.2
20260507092044 64 45 0.0 0.0 0.00 0.00 0.00 54 1061.1
20260507091932 64 90 6.0 0.0 0.00 0.00 0.00 54 1061.1
20260507091828 64 90 4.0 0.0 0.00 0.00 0.00 54 1061.1
20260507091712 64 0 4.0 0.0 0.00 0.00 0.00 54 1061.1
20260507091600 64 67 5.0 0.0 0.00 0.00 0.00 55 1061.1
20260507091454 64 22 0.0 0.0 0.00 0.00 0.00 55 1061.0
20260507091341 64 0 5.0 0.0 0.00 0.00 0.00 55 1061.1
20260507091221 64 22 3.0 0.0 0.00 0.00 0.00 55 1061.0
20260507091115 63 67 0.0 0.0 0.00 0.00 0.00 55 1061.0
20260507091002 63 45 7.0 0.0 0.00 0.00 0.00 55 1061.1
20260507090840 63 45 6.0 0.0 0.00 0.00 0.00 55 1061.1
20260507090727 63 67 0.0 0.0 0.00 0.00 0.00 54 1061.1
20260507090615 63 45 5.0 0.0 0.00 0.00 0.00 55 1061.1
20260507090502 64 0 3.0 0.0 0.00 0.00 0.00 54 1061.1
20260507090356 64 22 3.0 0.0 0.00 0.00 0.00 55 1061.0
20260507090235 64 112 7.0 0.0 0.00 0.00 0.00 55 1061.0
20260507090122 64 90 7.0 0.0 0.00 0.00 0.00 53 1061.0
20260507090008 64 45 9.0 0.0 0.00 0.00 0.00 53 1061.1
20260507085855 64 45 0.0 0.0 0.00 0.00 0.00 53 1061.0
20260507085745 64 45 8.0 0.0 0.00 0.00 0.00 55 1061.0
20260507085636 64 67 5.0 0.0 0.00 0.00 0.00 56 1061.0
20260507085517 64 67 4.0 0.0 0.00 0.00 0.00 56 1060.9
20260507085411 64 0 5.0 0.0 0.00 0.00 0.00 57 1060.9
20260507085250 64 22 0.0 0.0 0.00 0.00 0.00 56 1061.0
20260507085137 63 90 10.0 0.0 0.00 0.00 0.00 56 1060.9
20260507085023 63 90 4.0 0.0 0.00 0.00 0.00 56 1060.9
20260507084902 63 90 5.0 0.0 0.00 0.00 0.00 57 1061.0
20260507084748 63 22 7.0 0.0 0.00 0.00 0.00 57 1061.0
20260507084635 63 45 4.0 0.0 0.00 0.00 0.00 56 1060.9
20260507084521 63 45 5.0 0.0 0.00 0.00 0.00 56 1060.9
20260507084409 63 22 7.0 0.0 0.00 0.00 0.00 57 1061.0
20260507084257 63 67 0.0 0.0 0.00 0.00 0.00 57 1061.1
20260507084152 63 45 8.0 0.0 0.00 0.00 0.00 58 1060.8
20260507084044 63 67 6.0 0.0 0.00 0.00 0.00 59 1060.9
20260507083931 62 22 2.0 0.0 0.00 0.00 0.00 58 1060.9
20260507083826 62 67 9.0 0.0 0.00 0.00 0.00 58 1060.9
20260507083705 62 90 1.0 0.0 0.00 0.00 0.00 59 1060.9
20260507083552 62 90 6.0 0.0 0.00 0.00 0.00 59 1060.8
20260507083438 62 22 7.0 0.0 0.00 0.00 0.00 59 1060.8
20260507083327 62 0 4.0 0.0 0.00 0.00 0.00 59 1060.8
20260507083213 63 45 6.0 0.0 0.00 0.00 0.00 59 1060.8
20260507083100 63 22 2.0 0.0 0.00 0.00 0.00 59 1060.7
20260507082939 63 45 2.0 0.0 0.00 0.00 0.00 59 1060.8
20260507082827 63 45 6.0 0.0 0.00 0.00 0.00 60 1060.8
20260507082720 62 45 5.0 0.0 0.00 0.00 0.00 61 1060.8
20260507082608 62 45 3.0 0.0 0.00 0.00 0.00 60 1060.8
20260507082454 62 45 3.0 0.0 0.00 0.00 0.00 60 1060.8
20260507082336 62 45 7.0 0.0 0.00 0.00 0.00 61 1060.8
20260507082230 62 45 0.0 0.0 0.00 0.00 0.00 60 1060.8
20260507082123 62 22 5.0 0.0 0.00 0.00 0.00 61 1060.7
20260507082002 62 22 6.0 0.0 0.00 0.00 0.00 60 1060.7
20260507081857 62 45 7.0 0.0 0.00 0.00 0.00 61 1060.8
20260507081751 62 22 6.0 0.0 0.00 0.00 0.00 61 1060.7
20260507081622 62 90 6.0 0.0 0.00 0.00 0.00 62 1060.8
20260507081509 61 67 4.0 0.0 0.00 0.00 0.00 61 1060.8
20260507081348 62 45 4.0 0.0 0.00 0.00 0.00 60 1060.8
20260507081225 62 45 7.0 0.0 0.00 0.00 0.00 60 1060.8
20260507081108 62 22 6.0 0.0 0.00 0.00 0.00 60 1060.8
20260507081000 62 22 7.0 0.0 0.00 0.00 0.00 60 1060.8
20260507080848 62 67 5.0 0.0 0.00 0.00 0.00 59 1060.8
20260507080734 62 45 5.0 0.0 0.00 0.00 0.00 59 1060.8
20260507080615 63 67 7.0 0.0 0.00 0.00 0.00 59 1060.7
20260507080508 63 0 5.0 0.0 0.00 0.00 0.00 60 1060.8
20260507080355 62 90 0.0 0.0 0.00 0.00 0.00 61 1060.8
20260507080233 62 90 6.0 0.0 0.00 0.00 0.00 61 1060.8
20260507080120 62 90 7.0 0.0 0.00 0.00 0.00 61 1060.8
20260507080007 62 0 5.0 0.0 0.00 0.00 0.00 62 1060.8
20260507075854 62 112 7.0 0.0 0.00 0.00 0.00 63 1060.7
20260507075733 61 45 0.0 0.0 0.00 0.00 0.00 63 1060.8
20260507075620 61 45 6.0 0.0 0.00 0.00 0.00 63 1060.7
20260507075507 61 22 7.0 0.0 0.00 0.00 0.00 64 1060.7
20260507075402 61 90 5.0 0.0 0.00 0.00 0.00 64 1060.7
20260507075256 61 0 2.0 0.0 0.00 0.00 0.00 64 1060.6
20260507075135 60 45 0.0 0.0 0.00 0.00 0.00 64 1060.7
20260507075014 60 45 7.0 0.0 0.00 0.00 0.00 64 1060.7
20260507074901 60 90 7.0 0.0 0.00 0.00 0.00 65 1060.6
20260507074748 60 90 7.0 0.0 0.00 0.00 0.00 65 1060.7
20260507074634 60 67 3.0 0.0 0.00 0.00 0.00 65 1060.7
20260507074520 60 45 6.0 0.0 0.00 0.00 0.00 65 1060.6
20260507074415 60 67 5.0 0.0 0.00 0.00 0.00 65 1060.6
20260507074308 60 0 5.0 0.0 0.00 0.00 0.00 66 1060.6
20260507074148 60 22 6.0 0.0 0.00 0.00 0.00 66 1060.6
20260507074037 60 45 3.0 0.0 0.00 0.00 0.00 66 1060.6
20260507073930 60 22 2.0 0.0 0.00 0.00 0.00 68 1060.5
20260507073816 60 67 5.0 0.0 0.00 0.00 0.00 69 1060.6
20260507073646 59 45 6.0 0.0 0.00 0.00 0.00 69 1060.5
20260507073534 58 90 10.0 0.0 0.00 0.00 0.00 71 1060.5
20260507073420 58 112 6.0 0.0 0.00 0.00 0.00 71 1060.6
20260507073259 57 90 2.0 0.0 0.00 0.00 0.00 71 1060.5
20260507073146 57 45 4.0 0.0 0.00 0.00 0.00 71 1060.5
20260507073032 57 0 2.0 0.0 0.00 0.00 0.00 70 1060.6
20260507072911 57 45 0.0 0.0 0.00 0.00 0.00 70 1060.5
20260507072750 57 22 3.0 0.0 0.00 0.00 0.00 70 1060.6
20260507072629 57 45 6.0 0.0 0.00 0.00 0.00 70 1060.7
20260507072516 57 22 0.0 0.0 0.00 0.00 0.00 69 1060.6
20260507072347 57 22 6.0 0.0 0.00 0.00 0.00 69 1060.6
20260507072235 57 45 3.0 0.0 0.00 0.00 0.00 69 1060.5
20260507072129 58 22 9.0 0.0 0.00 0.00 0.00 70 1060.6
20260507072015 57 22 3.0 0.0 0.00 0.00 0.00 71 1060.5
20260507071902 57 45 6.0 0.0 0.00 0.00 0.00 71 1060.5
20260507071749 57 22 3.0 0.0 0.00 0.00 0.00 70 1060.4
20260507071636 57 0 5.0 0.0 0.00 0.00 0.00 71 1060.4
20260507071523 57 22 6.0 0.0 0.00 0.00 0.00 70 1060.4
20260507071412 57 22 4.0 0.0 0.00 0.00 0.00 70 1060.4
20260507071304 57 45 9.0 0.0 0.00 0.00 0.00 71 1060.4
20260507071151 57 45 5.0 0.0 0.00 0.00 0.00 71 1060.3
20260507071039 57 22 7.0 0.0 0.00 0.00 0.00 71 1060.4
20260507070934 57 22 6.0 0.0 0.00 0.00 0.00 70 1060.4
20260507070811 57 22 7.0 0.0 0.00 0.00 0.00 70 1060.5
20260507070652 57 45 9.0 0.0 0.00 0.00 0.00 69 1060.5
20260507070547 57 22 5.0 0.0 0.00 0.00 0.00 68 1060.5
20260507070440 58 45 4.0 0.0 0.00 0.00 0.00 68 1060.5
20260507070320 59 90 5.0 0.0 0.00 0.00 0.00 67 1060.4
20260507070200 59 22 8.0 0.0 0.00 0.00 0.00 68 1060.4
20260507070053 59 90 5.0 0.0 0.00 0.00 0.00 69 1060.4
20260507065941 59 45 6.0 0.0 0.00 0.00 0.00 69 1060.4
20260507065819 59 90 8.0 0.0 0.00 0.00 0.00 70 1060.4
20260507065706 58 67 7.0 0.0 0.00 0.00 0.00 70 1060.3
20260507065553 58 45 6.0 0.0 0.00 0.00 0.00 71 1060.3
20260507065440 57 67 0.0 0.0 0.00 0.00 0.00 71 1060.3
20260507065317 57 90 6.0 0.0 0.00 0.00 0.00 72 1060.3
20260507065204 57 22 2.0 0.0 0.00 0.00 0.00 71 1060.3
20260507065043 57 45 2.0 0.0 0.00 0.00 0.00 71 1060.3
20260507064930 57 90 11.0 0.0 0.00 0.00 0.00 73 1060.3
20260507064825 57 90 2.0 0.0 0.00 0.00 0.00 73 1060.2
20260507064712 57 112 6.0 0.0 0.00 0.00 0.00 73 1060.3
20260507064551 57 45 11.0 0.0 0.00 0.00 0.00 74 1060.3
20260507064438 56 90 8.0 0.0 0.00 0.00 0.00 75 1060.2
20260507064325 56 67 7.0 0.0 0.00 0.00 0.00 76 1060.3
20260507064205 55 90 6.0 0.0 0.00 0.00 0.00 77 1060.3
20260507064058 54 67 1.0 0.0 0.00 0.00 0.00 77 1060.3
20260507063939 54 67 5.0 0.0 0.00 0.00 0.00 77 1060.2
20260507063833 54 22 7.0 0.0 0.00 0.00 0.00 76 1060.2
20260507063726 54 22 3.0 0.0 0.00 0.00 0.00 76 1060.1
20260507063607 54 45 5.0 0.0 0.00 0.00 0.00 76 1060.2
20260507063459 54 45 7.0 0.0 0.00 0.00 0.00 76 1060.2
20260507063345 54 67 4.0 0.0 0.00 0.00 0.00 76 1060.1
20260507063232 54 22 0.0 0.0 0.00 0.00 0.00 76 1060.2
20260507063113 55 22 0.0 0.0 0.00 0.00 0.00 76 1060.1
20260507062958 55 112 8.0 0.0 0.00 0.00 0.00 77 1060.1
20260507062845 55 90 7.0 0.0 0.00 0.00 0.00 77 1060.1
20260507062724 54 67 0.0 0.0 0.00 0.00 0.00 77 1060.1
20260507062610 54 0 3.0 0.0 0.00 0.00 0.00 77 1060.0
20260507062450 54 22 6.0 0.0 0.00 0.00 0.00 77 1060.2
20260507062337 54 22 2.0 0.0 0.00 0.00 0.00 77 1060.0
20260507062229 54 45 3.0 0.0 0.00 0.00 0.00 76 1060.1
20260507062116 54 0 0.0 0.0 0.00 0.00 0.00 76 1060.1
20260507062010 54 45 6.0 0.0 0.00 0.00 0.00 76 1060.2
20260507061841 54 67 4.0 0.0 0.00 0.00 0.00 76 1060.1
20260507061727 54 90 6.0 0.0 0.00 0.00 0.00 76 1060.1
20260507061558 54 67 4.0 0.0 0.00 0.00 0.00 75 1060.0
20260507061437 55 90 3.0 0.0 0.00 0.00 0.00 75 1060.1
20260507061316 55 90 3.0 0.0 0.00 0.00 0.00 74 1060.0
20260507061204 55 45 10.0 0.0 0.00 0.00 0.00 74 1060.0
20260507061049 56 90 3.0 0.0 0.00 0.00 0.00 74 1060.0
20260507060929 56 90 8.0 0.0 0.00 0.00 0.00 74 1060.0
20260507060816 57 67 8.0 0.0 0.00 0.00 0.00 74 1060.0
20260507060710 57 90 6.0 0.0 0.00 0.00 0.00 75 1060.0
20260507060550 57 90 4.0 0.0 0.00 0.00 0.00 75 1059.9
20260507060445 56 22 0.0 0.0 0.00 0.00 0.00 75 1059.9
20260507060340 56 0 9.0 0.0 0.00 0.00 0.00 75 1059.9
20260507060226 55 45 6.0 0.0 0.00 0.00 0.00 75 1059.9
20260507060113 56 90 0.0 0.0 0.00 0.00 0.00 75 1059.9
20260507060008 56 45 6.0 0.0 0.00 0.00 0.00 74 1059.9
20260507055848 56 90 8.0 0.0 0.00 0.00 0.00 75 1059.9
20260507055742 56 67 11.0 0.0 0.00 0.00 0.00 75 1059.8
20260507055637 56 90 5.0 0.0 0.00 0.00 0.00 76 1059.8
20260507055517 55 45 3.0 0.0 0.00 0.00 0.00 76 1059.8
20260507055411 55 45 5.0 0.0 0.00 0.00 0.00 75 1059.8
20260507055306 55 45 12.0 0.0 0.00 0.00 0.00 76 1059.8
20260507055146 55 90 6.0 0.0 0.00 0.00 0.00 75 1059.8
20260507055040 55 45 9.0 0.0 0.00 0.00 0.00 75 1059.8
20260507054926 56 67 6.0 0.0 0.00 0.00 0.00 76 1059.8
20260507054813 56 45 6.0 0.0 0.00 0.00 0.00 76 1059.7
20260507054654 55 22 8.0 0.0 0.00 0.00 0.00 76 1059.7
20260507054541 55 45 4.0 0.0 0.00 0.00 0.00 77 1059.7
20260507054433 56 45 5.0 0.0 0.00 0.00 0.00 77 1059.7
20260507054320 56 45 6.0 0.0 0.00 0.00 0.00 77 1059.7
20260507054200 55 45 5.0 0.0 0.00 0.00 0.00 78 1059.6
20260507054056 55 45 0.0 0.0 0.00 0.00 0.00 79 1059.6
20260507053950 55 45 0.0 0.0 0.00 0.00 0.00 79 1059.7
20260507053835 55 22 4.0 0.0 0.00 0.00 0.00 79 1059.6
20260507053722 54 22 0.0 0.0 0.00 0.00 0.00 79 1059.7
20260507053600 54 67 8.0 0.0 0.00 0.00 0.00 80 1059.6
20260507053442 54 22 8.0 0.0 0.00 0.00 0.00 80 1059.6
20260507053335 54 22 6.0 0.0 0.00 0.00 0.00 80 1059.6
20260507053230 54 45 6.0 0.0 0.00 0.00 0.00 81 1059.6
20260507053124 54 45 5.0 0.0 0.00 0.00 0.00 81 1059.6
20260507053003 54 45 2.0 0.0 0.00 0.00 0.00 82 1059.6
20260507052842 54 22 4.0 0.0 0.00 0.00 0.00 82 1059.6
20260507052736 54 22 5.0 0.0 0.00 0.00 0.00 83 1059.6
20260507052631 54 45 9.0 0.0 0.00 0.00 0.00 84 1059.6
20260507052524 54 0 8.0 0.0 0.00 0.00 0.00 85 1059.6
20260507052419 54 22 3.0 0.0 0.00 0.00 0.00 85 1059.5
20260507052306 54 45 0.0 0.0 0.00 0.00 0.00 86 1059.5
20260507052144 53 45 2.0 0.0 0.00 0.00 0.00 86 1059.5
20260507052031 53 0 5.0 0.0 0.00 0.00 0.00 86 1059.5
20260507051912 53 45 6.0 0.0 0.00 0.00 0.00 86 1059.5
20260507051807 53 22 0.0 0.0 0.00 0.00 0.00 87 1059.5
20260507051701 52 45 3.0 0.0 0.00 0.00 0.00 87 1059.5
20260507051434 51 45 2.0 0.0 0.00 0.00 0.00 88 1059.4
20260507050945 51 45 0.0 0.0 0.00 0.00 0.00 88 1059.3
20260507050823 50 22 4.0 0.0 0.00 0.00 0.00 89 1059.3
20260507050701 50 45 0.0 0.0 0.00 0.00 0.00 89 1059.3
20260507050547 50 45 4.0 0.0 0.00 0.00 0.00 89 1059.3
20260507050440 50 22 0.0 0.0 0.00 0.00 0.00 89 1059.3
20260507050329 49 45 0.0 0.0 0.00 0.00 0.00 89 1059.3
20260507050221 49 45 0.0 0.0 0.00 0.00 0.00 89 1059.2
20260507050107 49 22 6.0 0.0 0.00 0.00 0.00 90 1059.3
20260507045952 49 22 2.0 0.0 0.00 0.00 0.00 89 1059.3
20260507045838 48 45 0.0 0.0 0.00 0.00 0.00 89 1059.3
20260507045733 48 45 0.0 0.0 0.00 0.00 0.00 89 1059.3
20260507045627 48 45 0.0 0.0 0.00 0.00 0.00 89 1059.3
20260507045511 48 45 0.0 0.0 0.00 0.00 0.00 89 1059.3
20260507045349 48 45 0.0 0.0 0.00 0.00 0.00 89 1059.2
20260507045235 48 45 0.0 0.0 0.00 0.00 0.00 89 1059.3
20260507045114 49 45 0.0 0.0 0.00 0.00 0.00 89 1059.3
20260507045009 49 45 0.0 0.0 0.00 0.00 0.00 90 1059.3
20260507044855 49 45 0.0 0.0 0.00 0.00 0.00 89 1059.3
20260507044749 49 45 0.0 0.0 0.00 0.00 0.00 89 1059.3
20260507044642 50 45 0.0 0.0 0.00 0.00 0.00 89 1059.2
20260507044536 50 45 0.0 0.0 0.00 0.00 0.00 90 1059.2
20260507044429 50 45 0.0 0.0 0.00 0.00 0.00 90 1059.2
20260507044314 50 45 3.0 0.0 0.00 0.00 0.00 90 1059.2
20260507044200 50 45 0.0 0.0 0.00 0.00 0.00 90 1059.2
20260507044047 49 45 0.0 0.0 0.00 0.00 0.00 90 1059.2
20260507043934 49 45 0.0 0.0 0.00 0.00 0.00 90 1059.2
20260507043822 49 45 0.0 0.0 0.00 0.00 0.00 90 1059.1
20260507043716 49 45 0.0 0.0 0.00 0.00 0.00 90 1059.2
20260507043611 49 45 0.0 0.0 0.00 0.00 0.00 90 1059.1
20260507043450 49 45 0.0 0.0 0.00 0.00 0.00 90 1059.2
20260507043336 49 45 0.0 0.0 0.00 0.00 0.00 91 1059.1
20260507043223 49 45 0.0 0.0 0.00 0.00 0.00 91 1059.1
20260507043110 49 45 3.0 0.0 0.00 0.00 0.00 91 1059.1
20260507042952 49 45 0.0 0.0 0.00 0.00 0.00 91 1059.0
20260507042845 49 22 0.0 0.0 0.00 0.00 0.00 91 1059.1
20260507042741 49 22 5.0 0.0 0.00 0.00 0.00 91 1059.0
20260507042634 48 45 4.0 0.0 0.00 0.00 0.00 92 1059.0
20260507042520 48 45 2.0 0.0 0.00 0.00 0.00 92 1059.0
20260507042354 48 45 0.0 0.0 0.00 0.00 0.00 92 1059.1
20260507042247 48 45 0.0 0.0 0.00 0.00 0.00 92 1059.0
20260507042134 48 45 0.0 0.0 0.00 0.00 0.00 92 1059.1
20260507042004 48 45 0.0 0.0 0.00 0.00 0.00 92 1059.0
20260507041851 48 22 0.0 0.0 0.00 0.00 0.00 91 1059.0
20260507041739 48 45 0.0 0.0 0.00 0.00 0.00 91 1058.9
20260507041633 48 22 5.0 0.0 0.00 0.00 0.00 91 1059.0
20260507041528 48 22 0.0 0.0 0.00 0.00 0.00 92 1059.0
20260507041417 48 22 6.0 0.0 0.00 0.00 0.00 91 1059.0
20260507041309 48 22 3.0 0.0 0.00 0.00 0.00 91 1059.0
20260507041149 48 0 4.0 0.0 0.00 0.00 0.00 91 1059.0
20260507041044 48 22 0.0 0.0 0.00 0.00 0.00 91 1058.9
20260507040922 48 22 4.0 0.0 0.00 0.00 0.00 91 1058.9
20260507040809 48 22 6.0 0.0 0.00 0.00 0.00 91 1058.9
20260507040656 48 45 0.0 0.0 0.00 0.00 0.00 91 1058.9
20260507040535 48 45 0.0 0.0 0.00 0.00 0.00 91 1058.8
20260507040422 48 22 1.0 0.0 0.00 0.00 0.00 91 1058.9
20260507040319 48 0 5.0 0.0 0.00 0.00 0.00 91 1058.8
20260507040212 48 22 4.0 0.0 0.00 0.00 0.00 91 1058.8
20260507040111 48 0 0.0 0.0 0.00 0.00 0.00 91 1058.8
20260507035843 48 0 4.0 0.0 0.00 0.00 0.00 91 1058.8
20260507035737 48 22 0.0 0.0 0.00 0.00 0.00 91 1058.9
20260507035525 47 45 6.0 0.0 0.00 0.00 0.00 91 1058.8
20260507035404 47 22 0.0 0.0 0.00 0.00 0.00 91 1058.8
20260507035251 47 22 6.0 0.0 0.00 0.00 0.00 91 1058.8
20260507035129 47 22 2.0 0.0 0.00 0.00 0.00 91 1058.7
20260507035017 47 22 0.0 0.0 0.00 0.00 0.00 91 1058.7
20260507034855 47 22 3.0 0.0 0.00 0.00 0.00 91 1058.8
20260507034734 47 22 5.0 0.0 0.00 0.00 0.00 91 1058.7
20260507034621 47 22 6.0 0.0 0.00 0.00 0.00 91 1058.8
20260507034516 47 22 0.0 0.0 0.00 0.00 0.00 91 1058.8
20260507034405 47 22 0.0 0.0 0.00 0.00 0.00 91 1058.7
20260507034300 46 22 2.0 0.0 0.00 0.00 0.00 91 1058.7
20260507034152 46 0 0.0 0.0 0.00 0.00 0.00 91 1058.7
20260507034032 46 0 5.0 0.0 0.00 0.00 0.00 91 1058.7
20260507033918 46 22 0.0 0.0 0.00 0.00 0.00 91 1058.7
20260507033759 46 22 0.0 0.0 0.00 0.00 0.00 91 1058.7
20260507033644 47 45 6.0 0.0 0.00 0.00 0.00 91 1058.7
20260507033531 46 0 3.0 0.0 0.00 0.00 0.00 91 1058.7
20260507033418 47 22 6.0 0.0 0.00 0.00 0.00 91 1058.7
20260507033304 47 22 6.0 0.0 0.00 0.00 0.00 91 1058.7
20260507033144 47 0 0.0 0.0 0.00 0.00 0.00 90 1058.7
20260507033030 47 45 3.0 0.0 0.00 0.00 0.00 91 1058.6
20260507032909 47 0 5.0 0.0 0.00 0.00 0.00 90 1058.5
20260507032756 47 22 4.0 0.0 0.00 0.00 0.00 90 1058.6
20260507032652 47 22 9.0 0.0 0.00 0.00 0.00 90 1058.5
20260507032546 47 22 0.0 0.0 0.00 0.00 0.00 90 1058.6
20260507032432 47 0 0.0 0.0 0.00 0.00 0.00 90 1058.7
20260507032312 47 22 7.0 0.0 0.00 0.00 0.00 90 1058.7
20260507032159 47 22 3.0 0.0 0.00 0.00 0.00 90 1058.7
20260507032054 47 0 4.0 0.0 0.00 0.00 0.00 90 1058.7
20260507031949 47 0 6.0 0.0 0.00 0.00 0.00 90 1058.7
20260507031844 47 22 4.0 0.0 0.00 0.00 0.00 90 1058.6
20260507031739 47 22 6.0 0.0 0.00 0.00 0.00 90 1058.5
20260507031633 47 22 7.0 0.0 0.00 0.00 0.00 90 1058.6
20260507031513 47 22 6.0 0.0 0.00 0.00 0.00 90 1058.5
20260507031409 47 45 0.0 0.0 0.00 0.00 0.00 90 1058.5
20260507031302 47 0 5.0 0.0 0.00 0.00 0.00 90 1058.5
20260507031141 47 22 6.0 0.0 0.00 0.00 0.00 90 1058.6
20260507031036 47 22 1.0 0.0 0.00 0.00 0.00 90 1058.6
20260507030924 47 22 2.0 0.0 0.00 0.00 0.00 90 1058.7
20260507030804 47 0 5.0 0.0 0.00 0.00 0.00 90 1058.6
20260507030657 47 22 6.0 0.0 0.00 0.00 0.00 90 1058.6
20260507030552 47 22 3.0 0.0 0.00 0.00 0.00 90 1058.6
20260507030439 47 45 0.0 0.0 0.00 0.00 0.00 90 1058.5
20260507030326 47 22 5.0 0.0 0.00 0.00 0.00 90 1058.5
20260507030213 47 45 6.0 0.0 0.00 0.00 0.00 90 1058.5
20260507030100 47 0 7.0 0.0 0.00 0.00 0.00 90 1058.5
20260507025954 47 0 6.0 0.0 0.00 0.00 0.00 90 1058.4
20260507025841 47 0 7.0 0.0 0.00 0.00 0.00 89 1058.5
20260507025735 47 0 0.0 0.0 0.00 0.00 0.00 89 1058.4
20260507025629 47 0 5.0 0.0 0.00 0.00 0.00 89 1058.4
20260507025523 47 22 9.0 0.0 0.00 0.00 0.00 89 1058.5
20260507025417 47 22 6.0 0.0 0.00 0.00 0.00 89 1058.4
20260507025312 47 22 4.0 0.0 0.00 0.00 0.00 89 1058.4
20260507025204 47 0 6.0 0.0 0.00 0.00 0.00 89 1058.4
20260507025050 47 22 0.0 0.0 0.00 0.00 0.00 89 1058.3
20260507024938 47 22 4.0 0.0 0.00 0.00 0.00 89 1058.4
20260507024822 47 337 4.0 0.0 0.00 0.00 0.00 89 1058.3
20260507024707 47 45 3.0 0.0 0.00 0.00 0.00 89 1058.3
20260507024547 47 0 4.0 0.0 0.00 0.00 0.00 89 1058.3
20260507024439 47 0 5.0 0.0 0.00 0.00 0.00 89 1058.3
20260507024325 47 22 6.0 0.0 0.00 0.00 0.00 89 1058.4
20260507024210 47 45 2.0 0.0 0.00 0.00 0.00 89 1058.3
20260507024050 47 0 8.0 0.0 0.00 0.00 0.00 89 1058.3
20260507023946 47 0 0.0 0.0 0.00 0.00 0.00 89 1058.4
20260507023839 47 0 0.0 0.0 0.00 0.00 0.00 89 1058.4
20260507023734 47 22 0.0 0.0 0.00 0.00 0.00 89 1058.4
20260507023628 47 22 7.0 0.0 0.00 0.00 0.00 89 1058.3
20260507023508 47 22 6.0 0.0 0.00 0.00 0.00 89 1058.4
20260507023402 47 22 6.0 0.0 0.00 0.00 0.00 89 1058.4
20260507023257 47 22 0.0 0.0 0.00 0.00 0.00 89 1058.4
20260507023136 47 45 6.0 0.0 0.00 0.00 0.00 89 1058.3
20260507023030 47 22 6.0 0.0 0.00 0.00 0.00 89 1058.4
20260507022918 47 0 4.0 0.0 0.00 0.00 0.00 89 1058.3
20260507022813 47 45 4.0 0.0 0.00 0.00 0.00 89 1058.3
20260507022700 47 67 7.0 0.0 0.00 0.00 0.00 89 1058.3
20260507022555 47 45 6.0 0.0 0.00 0.00 0.00 88 1058.3
20260507022450 47 45 10.0 0.0 0.00 0.00 0.00 88 1058.3
20260507022337 47 22 5.0 0.0 0.00 0.00 0.00 88 1058.3
20260507022233 47 22 6.0 0.0 0.00 0.00 0.00 88 1058.3
20260507022127 47 22 2.0 0.0 0.00 0.00 0.00 88 1058.2
20260507022005 47 0 2.0 0.0 0.00 0.00 0.00 88 1058.3
20260507021853 47 0 4.0 0.0 0.00 0.00 0.00 88 1058.2
20260507021739 47 0 3.0 0.0 0.00 0.00 0.00 88 1058.3
20260507021625 47 45 6.0 0.0 0.00 0.00 0.00 88 1058.2
20260507021513 47 0 6.0 0.0 0.00 0.00 0.00 88 1058.1
20260507021359 47 0 6.0 0.0 0.00 0.00 0.00 88 1058.2
20260507021246 47 22 4.0 0.0 0.00 0.00 0.00 88 1058.2
20260507021135 47 22 6.0 0.0 0.00 0.00 0.00 88 1058.1
20260507021028 47 22 5.0 0.0 0.00 0.00 0.00 88 1058.1
20260507020906 47 0 3.0 0.0 0.00 0.00 0.00 88 1058.2
20260507020746 47 0 4.0 0.0 0.00 0.00 0.00 88 1058.2
20260507020641 47 22 7.0 0.0 0.00 0.00 0.00 88 1058.1
20260507020528 47 0 6.0 0.0 0.00 0.00 0.00 88 1058.2
20260507020359 47 45 12.0 0.0 0.00 0.00 0.00 88 1058.2
20260507020245 47 22 4.0 0.0 0.00 0.00 0.00 88 1058.2
20260507020132 47 0 6.0 0.0 0.00 0.00 0.00 88 1058.3
20260507020010 47 22 0.0 0.0 0.00 0.00 0.00 88 1058.2
20260507015850 47 0 4.0 0.0 0.00 0.00 0.00 88 1058.2
20260507015745 47 22 4.0 0.0 0.00 0.00 0.00 87 1058.3
20260507015639 47 0 6.0 0.0 0.00 0.00 0.00 87 1058.2
20260507015518 47 0 6.0 0.0 0.00 0.00 0.00 87 1058.2
20260507015406 47 22 5.0 0.0 0.00 0.00 0.00 87 1058.1
20260507015301 47 337 6.0 0.0 0.00 0.00 0.00 87 1058.1
20260507015155 47 22 0.0 0.0 0.00 0.00 0.00 87 1058.0
20260507015042 47 45 4.0 0.0 0.00 0.00 0.00 87 1058.1
20260507014921 47 22 7.0 0.0 0.00 0.00 0.00 87 1058.1
20260507014800 47 22 6.0 0.0 0.00 0.00 0.00 87 1058.0
20260507014655 47 45 4.0 0.0 0.00 0.00 0.00 87 1058.1
20260507014549 47 22 3.0 0.0 0.00 0.00 0.00 87 1058.1
20260507014428 47 22 8.0 0.0 0.00 0.00 0.00 87 1058.0
20260507014315 47 22 5.0 0.0 0.00 0.00 0.00 87 1057.9
20260507014203 47 0 10.0 0.0 0.00 0.00 0.00 87 1058.1
20260507014057 47 22 4.0 0.0 0.00 0.00 0.00 86 1058.1
20260507013946 47 0 7.0 0.0 0.00 0.00 0.00 86 1058.0
20260507013839 47 45 9.0 0.0 0.00 0.00 0.00 86 1058.1
20260507013728 47 0 3.0 0.0 0.00 0.00 0.00 86 1058.1
20260507013620 47 22 0.0 0.0 0.00 0.00 0.00 86 1058.1
20260507013459 47 22 7.0 0.0 0.00 0.00 0.00 86 1058.1
20260507013346 47 22 3.0 0.0 0.00 0.00 0.00 86 1058.0
20260507013226 47 45 2.0 0.0 0.00 0.00 0.00 86 1058.0
20260507013120 47 0 8.0 0.0 0.00 0.00 0.00 86 1057.9
20260507013001 47 22 0.0 0.0 0.00 0.00 0.00 86 1058.0
20260507012853 47 0 9.0 0.0 0.00 0.00 0.00 86 1058.0
20260507012733 47 22 4.0 0.0 0.00 0.00 0.00 86 1058.0
20260507012620 47 0 5.0 0.0 0.00 0.00 0.00 86 1058.1
20260507012508 47 0 5.0 0.0 0.00 0.00 0.00 86 1058.0
20260507012353 47 0 6.0 0.0 0.00 0.00 0.00 86 1058.0
20260507012233 47 0 6.0 0.0 0.00 0.00 0.00 86 1058.0
20260507012128 47 22 7.0 0.0 0.00 0.00 0.00 86 1058.1
20260507012021 47 22 6.0 0.0 0.00 0.00 0.00 86 1058.0
20260507011853 47 0 3.0 0.0 0.00 0.00 0.00 86 1058.1
20260507011740 47 22 6.0 0.0 0.00 0.00 0.00 86 1058.0
20260507011634 47 45 5.0 0.0 0.00 0.00 0.00 86 1058.1
20260507011514 47 22 4.0 0.0 0.00 0.00 0.00 86 1058.0
20260507011400 47 22 4.0 0.0 0.00 0.00 0.00 86 1057.9
20260507011247 47 0 6.0 0.0 0.00 0.00 0.00 86 1058.0
20260507011143 47 0 2.0 0.0 0.00 0.00 0.00 86 1058.1
20260507011036 47 22 4.0 0.0 0.00 0.00 0.00 86 1057.9
20260507010917 47 0 4.0 0.0 0.00 0.00 0.00 86 1058.0
20260507010811 47 22 14.0 0.0 0.00 0.00 0.00 86 1058.0
20260507010650 47 45 5.0 0.0 0.00 0.00 0.00 86 1058.0
20260507010544 47 22 6.0 0.0 0.00 0.00 0.00 86 1058.0
20260507010423 47 45 0.0 0.0 0.00 0.00 0.00 86 1058.1
20260507010306 47 22 6.0 0.0 0.00 0.00 0.00 86 1057.9
20260507005922 47 0 4.0 0.0 0.00 0.00 0.00 85 1057.9
20260507005809 47 22 4.0 0.0 0.00 0.00 0.00 85 1057.9
20260507005650 47 45 6.0 0.0 0.00 0.00 0.00 85 1057.9
20260507005543 47 22 6.0 0.0 0.00 0.00 0.00 85 1057.9
20260507005430 47 22 5.0 0.0 0.00 0.00 0.00 85 1057.9
20260507005318 47 0 3.0 0.0 0.00 0.00 0.00 85 1057.9
20260507005204 47 22 6.0 0.0 0.00 0.00 0.00 85 1057.9
20260507005052 47 22 4.0 0.0 0.00 0.00 0.00 85 1057.9
20260507004946 47 337 3.0 0.0 0.00 0.00 0.00 85 1058.0
20260507004832 47 0 6.0 0.0 0.00 0.00 0.00 85 1057.9
20260507004719 47 0 6.0 0.0 0.00 0.00 0.00 85 1057.9
20260507004606 47 22 7.0 0.0 0.00 0.00 0.00 85 1057.9
20260507004453 47 22 5.0 0.0 0.00 0.00 0.00 85 1057.9
20260507004342 47 22 1.0 0.0 0.00 0.00 0.00 85 1057.9
20260507004235 47 22 2.0 0.0 0.00 0.00 0.00 85 1058.0
20260507004122 47 0 3.0 0.0 0.00 0.00 0.00 85 1057.9
20260507004008 47 22 3.0 0.0 0.00 0.00 0.00 85 1058.0
20260507003851 47 0 2.0 0.0 0.00 0.00 0.00 85 1058.0
20260507003743 47 45 5.0 0.0 0.00 0.00 0.00 85 1058.0
20260507003630 47 22 10.0 0.0 0.00 0.00 0.00 84 1058.0
20260507003525 47 22 5.0 0.0 0.00 0.00 0.00 85 1057.9
20260507003419 47 337 6.0 0.0 0.00 0.00 0.00 84 1057.9
20260507003250 47 0 6.0 0.0 0.00 0.00 0.00 84 1058.0
20260507003138 47 45 4.0 0.0 0.00 0.00 0.00 84 1057.9
20260507003032 47 22 6.0 0.0 0.00 0.00 0.00 84 1057.8
20260507002921 47 22 2.0 0.0 0.00 0.00 0.00 84 1057.9
20260507002757 47 0 4.0 0.0 0.00 0.00 0.00 84 1057.8
20260507002645 47 0 2.0 0.0 0.00 0.00 0.00 83 1057.7
20260507002539 47 337 7.0 0.0 0.00 0.00 0.00 83 1057.7
20260507002433 47 45 0.0 0.0 0.00 0.00 0.00 83 1057.8
20260507002327 47 22 9.0 0.0 0.00 0.00 0.00 83 1057.8
20260507002221 47 0 4.0 0.0 0.00 0.00 0.00 83 1057.7
20260507002116 47 0 8.0 0.0 0.00 0.00 0.00 83 1057.7
20260507002009 47 22 4.0 0.0 0.00 0.00 0.00 83 1057.8
20260507001903 47 45 10.0 0.0 0.00 0.00 0.00 83 1057.7
20260507001756 47 22 4.0 0.0 0.00 0.00 0.00 83 1057.7
20260507001635 47 22 0.0 0.0 0.00 0.00 0.00 83 1057.7
20260507001522 47 45 4.0 0.0 0.00 0.00 0.00 83 1057.7
20260507001414 47 22 5.0 0.0 0.00 0.00 0.00 83 1057.8
20260507001302 47 22 4.0 0.0 0.00 0.00 0.00 83 1057.6
20260507001154 47 0 6.0 0.0 0.00 0.00 0.00 83 1057.7
20260507001041 47 22 5.0 0.0 0.00 0.00 0.00 82 1057.7
20260507000921 47 45 3.0 0.0 0.00 0.00 0.00 82 1057.7
20260507000817 47 22 0.0 0.0 0.00 0.00 0.00 82 1057.7
20260507000711 47 22 3.0 0.0 0.00 0.00 0.00 82 1057.8
20260507000605 47 22 8.0 0.0 0.00 0.00 0.00 82 1057.7
20260507000452 47 22 0.0 0.0 0.00 0.00 0.00 82 1057.8
20260507000346 47 337 5.0 0.0 0.00 0.00 0.00 82 1057.7
20260507000240 47 45 6.0 0.0 0.00 0.00 0.00 82 1057.8
20260507000134 47 0 3.0 0.0 0.00 0.00 0.00 82 1057.8
20260507000028 47 0 6.0 0.0 0.00 0.00 0.00 82 1057.8
20260506235915 47 45 6.0 0.0 0.00 0.00 0.00 81 1057.8
20260506235801 47 45 6.0 0.0 0.00 0.00 0.00 81 1057.8
20260506235649 47 22 6.0 0.0 0.00 0.00 0.00 81 1057.9
20260506235536 47 0 5.0 0.0 0.00 0.00 0.00 81 1057.9
20260506235431 47 0 5.0 0.0 0.00 0.00 0.00 81 1058.0
20260506235325 47 22 14.0 0.0 0.00 0.00 0.00 81 1057.9
20260506235214 47 0 6.0 0.0 0.00 0.00 0.00 81 1058.0
20260506235107 47 0 4.0 0.0 0.00 0.00 0.00 81 1057.8
20260506234957 47 22 3.0 0.0 0.00 0.00 0.00 81 1057.8
20260506234632 47 22 2.0 0.0 0.00 0.00 0.00 81 1057.8
20260506234413 47 0 2.0 0.0 0.00 0.00 0.00 81 1057.8
20260506234300 47 22 5.0 0.0 0.00 0.00 0.00 81 1057.8
20260506234146 47 22 5.0 0.0 0.00 0.00 0.00 81 1057.9
20260506234036 47 0 3.0 0.0 0.00 0.00 0.00 81 1057.8
20260506233929 47 0 6.0 0.0 0.00 0.00 0.00 81 1057.8
20260506233824 47 0 6.0 0.0 0.00 0.00 0.00 81 1057.7
20260506233711 47 45 9.0 0.0 0.00 0.00 0.00 81 1057.8
20260506233606 47 22 3.0 0.0 0.00 0.00 0.00 81 1057.9
20260506233500 47 45 4.0 0.0 0.00 0.00 0.00 81 1057.8
20260506233341 47 0 6.0 0.0 0.00 0.00 0.00 81 1057.9
20260506233234 47 337 6.0 0.0 0.00 0.00 0.00 80 1057.7
20260506233113 47 22 3.0 0.0 0.00 0.00 0.00 80 1057.8
20260506233008 47 45 6.0 0.0 0.00 0.00 0.00 80 1057.8
20260506232854 47 22 0.0 0.0 0.00 0.00 0.00 80 1057.8
20260506232742 47 67 6.0 0.0 0.00 0.00 0.00 80 1057.8
20260506232631 47 0 2.0 0.0 0.00 0.00 0.00 80 1057.9
20260506232524 47 22 6.0 0.0 0.00 0.00 0.00 80 1057.7